Time,TemperatureF,DewpointF,PressureIn,WindDirection,WindDirectionDegrees,WindSpeedMPH,WindSpeedGustMPH,Humidity,HourlyPrecipIn,Conditions,Clouds,dailyrainin,SoftwareType,DateUTC
2013-07-22 00:01:00,70.4,65.3,29.70,ESE,113,9.0,14.0,84,0.00,,,0.00,Wunderground v.1.13,2013-07-22 05:01:00,
2013-07-22 00:03:00,70.3,65.2,29.70,ESE,113,8.0,12.0,84,0.00,,,0.00,Wunderground v.1.13,2013-07-22 05:03:00,
2013-07-22 00:05:00,70.2,65.1,29.70,ESE,113,10.0,13.0,84,0.00,,,0.00,Wunderground v.1.13,2013-07-22 05:05:00,
2013-07-22 00:07:00,70.2,65.1,29.70,ESE,113,8.0,11.0,84,0.00,,,0.00,Wunderground v.1.13,2013-07-22 05:07:00,
2013-07-22 00:09:00,70.2,65.1,29.70,ESE,113,10.0,13.0,84,0.00,,,0.00,Wunderground v.1.13,2013-07-22 05:09:00,
2013-07-22 00:11:00,70.1,65.0,29.70,ESE,113,11.0,16.0,84,0.00,,,0.00,Wunderground v.1.13,2013-07-22 05:11:00,
2013-07-22 00:13:00,70.1,65.0,29.70,ESE,113,9.0,12.0,84,0.00,,,0.00,Wunderground v.1.13,2013-07-22 05:13:00,
2013-07-22 00:15:00,70.1,65.4,29.70,ESE,113,9.0,12.0,85,0.00,,,0.00,Wunderground v.1.13,2013-07-22 05:15:00,
2013-07-22 00:17:00,70.1,65.0,29.69,ESE,113,11.0,14.0,84,0.00,,,0.00,Wunderground v.1.13,2013-07-22 05:17:00,
2013-07-22 00:19:00,70.0,64.9,29.69,ESE,113,9.0,12.0,84,0.00,,,0.00,Wunderground v.1.13,2013-07-22 05:19:00,
2013-07-22 00:21:00,69.9,65.2,29.69,ESE,113,10.0,13.0,85,0.00,,,0.00,Wunderground v.1.13,2013-07-22 05:21:00,
2013-07-22 00:23:00,69.8,65.1,29.70,ESE,113,8.0,10.0,85,0.00,,,0.00,Wunderground v.1.13,2013-07-22 05:23:00,
2013-07-22 00:25:00,69.8,64.7,29.69,ESE,113,9.0,14.0,84,0.00,,,0.00,Wunderground v.1.13,2013-07-22 05:25:00,
2013-07-22 00:27:00,69.7,65.0,29.70,ESE,113,9.0,13.0,85,0.00,,,0.00,Wunderground v.1.13,2013-07-22 05:27:00,
2013-07-22 00:29:00,69.8,65.4,29.70,ESE,113,8.0,10.0,86,0.00,,,0.00,Wunderground v.1.13,2013-07-22 05:29:00,
2013-07-22 00:31:00,69.7,65.0,29.70,ESE,113,9.0,12.0,85,0.00,,,0.00,Wunderground v.1.13,2013-07-22 05:31:00,
2013-07-22 00:33:00,69.7,65.0,29.70,ESE,113,6.0,10.0,85,0.00,,,0.00,Wunderground v.1.13,2013-07-22 05:33:00,
2013-07-22 00:35:00,69.6,64.9,29.69,ESE,113,6.0,8.0,85,0.00,,,0.00,Wunderground v.1.13,2013-07-22 05:35:00,
2013-07-22 00:37:00,69.6,64.9,29.69,ESE,113,9.0,12.0,85,0.00,,,0.00,Wunderground v.1.13,2013-07-22 05:37:00,
2013-07-22 00:39:00,69.6,65.2,29.69,ESE,113,7.0,9.0,86,0.00,,,0.00,Wunderground v.1.13,2013-07-22 05:39:00,
2013-07-22 00:41:00,69.6,65.2,29.69,ESE,113,7.0,10.0,86,0.00,,,0.00,Wunderground v.1.13,2013-07-22 05:41:00,
2013-07-22 00:43:00,69.6,65.2,29.69,ESE,113,10.0,14.0,86,0.00,,,0.00,Wunderground v.1.13,2013-07-22 05:43:00,
2013-07-22 00:45:00,69.5,65.1,29.69,ESE,113,8.0,11.0,86,0.00,,,0.00,Wunderground v.1.13,2013-07-22 05:45:00,
2013-07-22 00:47:00,69.6,65.2,29.69,ESE,113,8.0,10.0,86,0.00,,,0.00,Wunderground v.1.13,2013-07-22 05:47:00,
2013-07-22 00:49:00,69.5,65.1,29.69,ESE,113,9.0,13.0,86,0.00,,,0.00,Wunderground v.1.13,2013-07-22 05:49:00,
2013-07-22 00:51:00,69.4,65.0,29.69,ESE,113,9.0,11.0,86,0.00,,,0.00,Wunderground v.1.13,2013-07-22 05:51:00,
2013-07-22 00:53:00,69.3,64.9,29.69,ESE,113,9.0,12.0,86,0.00,,,0.00,Wunderground v.1.13,2013-07-22 05:53:00,
2013-07-22 00:55:00,69.2,64.8,29.69,ESE,113,8.0,10.0,86,0.00,,,0.00,Wunderground v.1.13,2013-07-22 05:55:00,
2013-07-22 00:57:00,69.1,64.7,29.69,ESE,113,9.0,12.0,86,0.00,,,0.00,Wunderground v.1.13,2013-07-22 05:57:00,
2013-07-22 00:59:00,69.1,65.1,29.69,ESE,113,9.0,12.0,87,0.00,,,0.00,Wunderground v.1.13,2013-07-22 05:59:00,
2013-07-22 01:01:00,69.0,65.0,29.69,ESE,113,6.0,10.0,87,0.00,,,0.00,Wunderground v.1.13,2013-07-22 06:01:00,
2013-07-22 01:03:00,69.0,65.0,29.70,ESE,113,7.0,9.0,87,0.00,,,0.00,Wunderground v.1.13,2013-07-22 06:03:00,
2013-07-22 01:05:00,69.0,65.0,29.69,SE,135,5.0,8.0,87,0.00,,,0.00,Wunderground v.1.13,2013-07-22 06:05:00,
2013-07-22 01:07:00,69.0,65.0,29.69,ESE,113,7.0,10.0,87,0.00,,,0.00,Wunderground v.1.13,2013-07-22 06:07:00,
2013-07-22 01:09:00,69.0,65.0,29.69,ESE,113,8.0,10.0,87,0.00,,,0.00,Wunderground v.1.13,2013-07-22 06:09:00,
2013-07-22 01:11:00,69.0,65.0,29.69,ESE,113,9.0,12.0,87,0.00,,,0.00,Wunderground v.1.13,2013-07-22 06:11:00,
2013-07-22 01:13:00,68.9,64.9,29.69,ESE,113,7.0,9.0,87,0.00,,,0.00,Wunderground v.1.13,2013-07-22 06:13:00,
2013-07-22 01:15:00,69.0,65.0,29.69,ESE,113,10.0,15.0,87,0.00,,,0.00,Wunderground v.1.13,2013-07-22 06:15:00,
2013-07-22 01:17:00,68.9,64.9,29.69,ESE,113,8.0,10.0,87,0.00,,,0.00,Wunderground v.1.13,2013-07-22 06:17:00,
2013-07-22 01:19:00,68.9,64.9,29.69,ESE,113,7.0,11.0,87,0.00,,,0.00,Wunderground v.1.13,2013-07-22 06:19:00,
2013-07-22 01:21:00,68.9,65.2,29.69,ESE,113,9.0,11.0,88,0.00,,,0.00,Wunderground v.1.13,2013-07-22 06:21:00,
2013-07-22 01:23:00,68.9,65.2,29.69,ESE,113,7.0,10.0,88,0.00,,,0.00,Wunderground v.1.13,2013-07-22 06:23:00,
2013-07-22 01:25:00,68.8,65.1,29.69,ESE,113,7.0,9.0,88,0.00,,,0.00,Wunderground v.1.13,2013-07-22 06:25:00,
2013-07-22 01:27:00,68.8,65.1,29.69,ESE,113,7.0,10.0,88,0.00,,,0.00,Wunderground v.1.13,2013-07-22 06:27:00,
2013-07-22 01:29:00,68.8,65.1,29.68,ESE,113,9.0,12.0,88,0.00,,,0.00,Wunderground v.1.13,2013-07-22 06:29:00,
2013-07-22 01:31:00,68.7,65.0,29.68,ESE,113,8.0,11.0,88,0.00,,,0.00,Wunderground v.1.13,2013-07-22 06:31:00,
2013-07-22 01:33:00,68.7,65.0,29.68,ESE,113,9.0,11.0,88,0.00,,,0.00,Wunderground v.1.13,2013-07-22 06:33:00,
2013-07-22 01:35:00,68.6,64.9,29.68,ESE,113,9.0,12.0,88,0.00,,,0.00,Wunderground v.1.13,2013-07-22 06:35:00,
2013-07-22 01:37:00,68.5,64.8,29.67,ESE,113,8.0,11.0,88,0.00,,,0.00,Wunderground v.1.13,2013-07-22 06:37:00,
2013-07-22 01:39:00,68.5,64.8,29.67,ESE,113,9.0,13.0,88,0.00,,,0.00,Wunderground v.1.13,2013-07-22 06:39:00,
2013-07-22 01:41:00,68.4,64.7,29.67,ESE,113,10.0,13.0,88,0.00,,,0.00,Wunderground v.1.13,2013-07-22 06:41:00,
2013-07-22 01:43:00,68.5,64.8,29.68,ESE,113,8.0,13.0,88,0.00,,,0.00,Wunderground v.1.13,2013-07-22 06:43:00,
2013-07-22 01:45:00,68.5,64.8,29.67,ESE,113,9.0,11.0,88,0.00,,,0.00,Wunderground v.1.13,2013-07-22 06:45:00,
2013-07-22 01:47:00,68.5,64.8,29.67,ESE,113,9.0,12.0,88,0.00,,,0.00,Wunderground v.1.13,2013-07-22 06:47:00,
2013-07-22 01:49:00,68.4,64.7,29.67,ESE,113,9.0,12.0,88,0.00,,,0.00,Wunderground v.1.13,2013-07-22 06:49:00,
2013-07-22 01:51:00,68.5,65.1,29.68,ESE,113,6.0,8.0,89,0.00,,,0.00,Wunderground v.1.13,2013-07-22 06:51:00,
2013-07-22 01:53:00,68.4,64.7,29.67,ESE,113,9.0,11.0,88,0.00,,,0.00,Wunderground v.1.13,2013-07-22 06:53:00,
2013-07-22 01:55:00,68.4,64.7,29.67,ESE,113,9.0,13.0,88,0.00,,,0.00,Wunderground v.1.13,2013-07-22 06:55:00,
2013-07-22 01:57:00,68.4,64.7,29.67,ESE,113,9.0,12.0,88,0.00,,,0.00,Wunderground v.1.13,2013-07-22 06:57:00,
2013-07-22 01:59:00,68.4,65.0,29.67,ESE,113,9.0,13.0,89,0.00,,,0.00,Wunderground v.1.13,2013-07-22 06:59:00,
2013-07-22 02:01:00,68.4,65.0,29.67,ESE,113,10.0,14.0,89,0.00,,,0.00,Wunderground v.1.13,2013-07-22 07:01:00,
2013-07-22 02:03:00,68.4,65.0,29.66,ESE,113,8.0,11.0,89,0.00,,,0.00,Wunderground v.1.13,2013-07-22 07:03:00,
2013-07-22 02:05:00,68.4,64.7,29.66,ESE,113,8.0,11.0,88,0.00,,,0.00,Wunderground v.1.13,2013-07-22 07:05:00,
2013-07-22 02:07:00,68.2,64.5,29.66,ESE,113,9.0,11.0,88,0.00,,,0.00,Wunderground v.1.13,2013-07-22 07:07:00,
2013-07-22 02:09:00,68.2,64.5,29.66,ESE,113,7.0,9.0,88,0.00,,,0.00,Wunderground v.1.13,2013-07-22 07:09:00,
2013-07-22 02:11:00,68.2,64.8,29.66,ESE,113,9.0,11.0,89,0.00,,,0.00,Wunderground v.1.13,2013-07-22 07:11:00,
2013-07-22 02:13:00,68.2,64.5,29.66,ESE,113,5.0,9.0,88,0.00,,,0.00,Wunderground v.1.13,2013-07-22 07:13:00,
2013-07-22 02:15:00,68.1,64.4,29.66,SSE,158,6.0,10.0,88,0.00,,,0.00,Wunderground v.1.13,2013-07-22 07:15:00,
2013-07-22 02:17:00,68.2,64.5,29.66,ESE,113,9.0,13.0,88,0.00,,,0.00,Wunderground v.1.13,2013-07-22 07:17:00,
2013-07-22 02:19:00,68.2,64.5,29.66,ESE,113,8.0,9.0,88,0.00,,,0.00,Wunderground v.1.13,2013-07-22 07:19:00,
2013-07-22 02:21:00,68.2,64.5,29.66,ESE,113,6.0,10.0,88,0.00,,,0.00,Wunderground v.1.13,2013-07-22 07:21:00,
2013-07-22 02:23:00,68.2,64.5,29.66,ESE,113,10.0,14.0,88,0.00,,,0.00,Wunderground v.1.13,2013-07-22 07:23:00,
2013-07-22 02:25:00,68.3,64.6,29.66,ESE,113,8.0,10.0,88,0.00,,,0.00,Wunderground v.1.13,2013-07-22 07:25:00,
2013-07-22 02:27:00,68.3,64.9,29.66,ESE,113,7.0,10.0,89,0.00,,,0.00,Wunderground v.1.13,2013-07-22 07:27:00,
2013-07-22 02:29:00,68.4,65.0,29.66,ESE,113,6.0,8.0,89,0.00,,,0.00,Wunderground v.1.13,2013-07-22 07:29:00,
2013-07-22 02:31:00,68.3,64.6,29.66,ESE,113,7.0,11.0,88,0.00,,,0.00,Wunderground v.1.13,2013-07-22 07:31:00,
2013-07-22 02:33:00,68.2,64.5,29.66,ESE,113,8.0,10.0,88,0.00,,,0.00,Wunderground v.1.13,2013-07-22 07:33:00,
2013-07-22 02:35:00,68.2,64.5,29.66,SSE,158,5.0,9.0,88,0.00,,,0.00,Wunderground v.1.13,2013-07-22 07:35:00,
2013-07-22 02:37:00,68.1,64.4,29.66,ESE,113,8.0,13.0,88,0.00,,,0.00,Wunderground v.1.13,2013-07-22 07:37:00,
2013-07-22 02:39:00,68.1,64.4,29.66,ESE,113,5.0,9.0,88,0.00,,,0.00,Wunderground v.1.13,2013-07-22 07:39:00,
2013-07-22 02:41:00,68.1,64.4,29.66,ESE,113,6.0,9.0,88,0.00,,,0.00,Wunderground v.1.13,2013-07-22 07:41:00,
2013-07-22 02:43:00,68.1,64.4,29.66,ESE,113,8.0,10.0,88,0.00,,,0.00,Wunderground v.1.13,2013-07-22 07:43:00,
2013-07-22 02:45:00,68.1,64.7,29.66,ESE,113,6.0,8.0,89,0.00,,,0.00,Wunderground v.1.13,2013-07-22 07:45:00,
2013-07-22 02:47:00,68.1,64.4,29.66,ESE,113,8.0,10.0,88,0.00,,,0.00,Wunderground v.1.13,2013-07-22 07:47:00,
2013-07-22 02:49:00,68.1,64.4,29.66,ESE,113,6.0,10.0,88,0.00,,,0.00,Wunderground v.1.13,2013-07-22 07:49:00,
2013-07-22 02:51:00,68.0,64.3,29.66,ESE,113,4.0,9.0,88,0.00,,,0.00,Wunderground v.1.13,2013-07-22 07:51:00,
2013-07-22 02:53:00,67.9,64.2,29.66,SE,135,4.0,8.0,88,0.00,,,0.00,Wunderground v.1.13,2013-07-22 07:53:00,
2013-07-22 02:55:00,67.9,64.2,29.66,ESE,113,6.0,9.0,88,0.00,,,0.00,Wunderground v.1.13,2013-07-22 07:55:00,
2013-07-22 02:57:00,68.0,64.6,29.65,ESE,113,7.0,10.0,89,0.00,,,0.00,Wunderground v.1.13,2013-07-22 07:57:00,
2013-07-22 02:59:00,68.0,64.3,29.65,ESE,113,7.0,10.0,88,0.00,,,0.00,Wunderground v.1.13,2013-07-22 07:59:00,
2013-07-22 03:01:00,68.0,64.3,29.65,SE,135,3.0,7.0,88,0.00,,,0.00,Wunderground v.1.13,2013-07-22 08:01:00,
2013-07-22 03:03:00,68.0,64.6,29.65,SE,135,5.0,11.0,89,0.00,,,0.00,Wunderground v.1.13,2013-07-22 08:03:00,
2013-07-22 03:05:00,67.9,64.2,29.65,ESE,113,3.0,7.0,88,0.00,,,0.00,Wunderground v.1.13,2013-07-22 08:05:00,
2013-07-22 03:07:00,67.8,64.1,29.65,SE,135,4.0,8.0,88,0.00,,,0.00,Wunderground v.1.13,2013-07-22 08:07:00,
2013-07-22 03:09:00,67.8,64.1,29.65,SE,135,3.0,4.0,88,0.00,,,0.00,Wunderground v.1.13,2013-07-22 08:09:00,
2013-07-22 03:11:00,67.7,64.0,29.65,ESE,113,5.0,8.0,88,0.00,,,0.00,Wunderground v.1.13,2013-07-22 08:11:00,
2013-07-22 03:13:00,67.7,64.0,29.64,ESE,113,4.0,8.0,88,0.00,,,0.00,Wunderground v.1.13,2013-07-22 08:13:00,
2013-07-22 03:15:00,67.8,64.4,29.64,ESE,113,5.0,11.0,89,0.00,,,0.00,Wunderground v.1.13,2013-07-22 08:15:00,
2013-07-22 03:17:00,67.6,63.9,29.64,ESE,113,4.0,7.0,88,0.00,,,0.00,Wunderground v.1.13,2013-07-22 08:17:00,
2013-07-22 03:19:00,67.6,63.9,29.64,SE,135,4.0,6.0,88,0.00,,,0.00,Wunderground v.1.13,2013-07-22 08:19:00,
2013-07-22 03:21:00,67.6,63.9,29.64,ESE,113,5.0,9.0,88,0.00,,,0.00,Wunderground v.1.13,2013-07-22 08:21:00,
2013-07-22 03:23:00,67.6,63.9,29.64,ESE,113,2.0,4.0,88,0.00,,,0.00,Wunderground v.1.13,2013-07-22 08:23:00,
2013-07-22 03:25:00,67.6,64.2,29.64,ESE,113,2.0,7.0,89,0.00,,,0.00,Wunderground v.1.13,2013-07-22 08:25:00,
2013-07-22 03:27:00,67.6,64.2,29.64,ESE,113,5.0,9.0,89,0.00,,,0.00,Wunderground v.1.13,2013-07-22 08:27:00,
2013-07-22 03:29:00,67.6,63.9,29.64,SE,135,3.0,5.0,88,0.00,,,0.00,Wunderground v.1.13,2013-07-22 08:29:00,
2013-07-22 03:31:00,67.6,64.2,29.64,East,90,3.0,5.0,89,0.00,,,0.00,Wunderground v.1.13,2013-07-22 08:31:00,
2013-07-22 03:33:00,67.5,63.8,29.63,East,90,4.0,6.0,88,0.00,,,0.00,Wunderground v.1.13,2013-07-22 08:33:00,
2013-07-22 03:35:00,67.5,63.8,29.63,ESE,113,1.0,4.0,88,0.00,,,0.00,Wunderground v.1.13,2013-07-22 08:35:00,
2013-07-22 03:37:00,67.4,63.7,29.63,ESE,113,4.0,7.0,88,0.00,,,0.00,Wunderground v.1.13,2013-07-22 08:37:00,
2013-07-22 03:39:00,67.4,64.0,29.63,ESE,113,5.0,9.0,89,0.00,,,0.00,Wunderground v.1.13,2013-07-22 08:39:00,
2013-07-22 03:41:00,67.4,64.0,29.63,East,90,5.0,8.0,89,0.00,,,0.00,Wunderground v.1.13,2013-07-22 08:41:00,
2013-07-22 03:43:00,67.4,64.0,29.64,ESE,113,3.0,6.0,89,0.00,,,0.00,Wunderground v.1.13,2013-07-22 08:43:00,
2013-07-22 03:45:00,67.4,64.0,29.63,ESE,113,5.0,7.0,89,0.00,,,0.00,Wunderground v.1.13,2013-07-22 08:45:00,
2013-07-22 03:47:00,67.4,64.0,29.63,SE,135,2.0,7.0,89,0.00,,,0.00,Wunderground v.1.13,2013-07-22 08:47:00,
2013-07-22 03:49:00,67.4,63.7,29.64,ESE,113,0.0,4.0,88,0.00,,,0.00,Wunderground v.1.13,2013-07-22 08:49:00,
2013-07-22 03:51:00,67.3,63.9,29.63,ESE,113,4.0,6.0,89,0.00,,,0.00,Wunderground v.1.13,2013-07-22 08:51:00,
2013-07-22 03:53:00,67.4,64.0,29.63,ESE,113,6.0,8.0,89,0.00,,,0.00,Wunderground v.1.13,2013-07-22 08:53:00,
2013-07-22 03:55:00,67.4,64.0,29.63,ESE,113,4.0,6.0,89,0.00,,,0.00,Wunderground v.1.13,2013-07-22 08:55:00,
2013-07-22 03:57:00,67.5,64.1,29.63,SE,135,3.0,5.0,89,0.00,,,0.00,Wunderground v.1.13,2013-07-22 08:57:00,
2013-07-22 03:59:00,67.4,63.7,29.63,SE,135,2.0,6.0,88,0.00,,,0.00,Wunderground v.1.13,2013-07-22 08:59:00,
2013-07-22 04:01:00,67.3,63.6,29.63,SE,135,1.0,5.0,88,0.00,,,0.00,Wunderground v.1.13,2013-07-22 09:01:00,
2013-07-22 04:03:00,67.3,63.6,29.63,ESE,113,3.0,8.0,88,0.00,,,0.00,Wunderground v.1.13,2013-07-22 09:03:00,
2013-07-22 04:05:00,67.2,63.5,29.63,SSE,158,1.0,3.0,88,0.00,,,0.00,Wunderground v.1.13,2013-07-22 09:05:00,
2013-07-22 04:07:00,67.2,63.5,29.63,East,90,3.0,5.0,88,0.00,,,0.00,Wunderground v.1.13,2013-07-22 09:07:00,
2013-07-22 04:09:00,67.2,63.5,29.63,East,90,2.0,4.0,88,0.00,,,0.00,Wunderground v.1.13,2013-07-22 09:09:00,
2013-07-22 04:11:00,67.2,63.5,29.63,SE,135,2.0,4.0,88,0.00,,,0.00,Wunderground v.1.13,2013-07-22 09:11:00,
2013-07-22 04:13:00,67.2,63.5,29.63,SE,135,3.0,4.0,88,0.00,,,0.00,Wunderground v.1.13,2013-07-22 09:13:00,
2013-07-22 04:15:00,67.2,63.5,29.63,WSW,248,0.0,2.0,88,0.00,,,0.00,Wunderground v.1.13,2013-07-22 09:15:00,
2013-07-22 04:17:00,67.2,63.5,29.63,ESE,113,3.0,9.0,88,0.00,,,0.00,Wunderground v.1.13,2013-07-22 09:17:00,
2013-07-22 04:19:00,67.2,63.5,29.63,SW,225,3.0,5.0,88,0.00,,,0.00,Wunderground v.1.13,2013-07-22 09:19:00,
2013-07-22 04:21:00,67.2,63.5,29.63,ESE,113,4.0,6.0,88,0.00,,,0.00,Wunderground v.1.13,2013-07-22 09:21:00,
2013-07-22 04:23:00,67.2,63.5,29.63,SSE,158,3.0,6.0,88,0.00,,,0.00,Wunderground v.1.13,2013-07-22 09:23:00,
2013-07-22 04:25:00,67.3,63.6,29.63,WSW,248,1.0,4.0,88,0.00,,,0.00,Wunderground v.1.13,2013-07-22 09:25:00,
2013-07-22 04:27:00,67.3,63.6,29.63,South,180,3.0,5.0,88,0.00,,,0.00,Wunderground v.1.13,2013-07-22 09:27:00,
2013-07-22 04:29:00,67.3,63.6,29.63,SSE,158,3.0,6.0,88,0.00,,,0.00,Wunderground v.1.13,2013-07-22 09:29:00,
2013-07-22 04:31:00,67.3,63.3,29.63,SE,135,3.0,5.0,87,0.00,,,0.00,Wunderground v.1.13,2013-07-22 09:31:00,
2013-07-22 04:33:00,67.3,63.6,29.63,SE,135,1.0,3.0,88,0.00,,,0.00,Wunderground v.1.13,2013-07-22 09:33:00,
2013-07-22 04:35:00,67.3,63.3,29.64,ESE,113,3.0,6.0,87,0.00,,,0.00,Wunderground v.1.13,2013-07-22 09:35:00,
2013-07-22 04:37:00,67.3,63.3,29.64,N/A,-737280,0.0,0.0,87,0.00,,,0.00,Wunderground v.1.13,2013-07-22 09:37:00,
2013-07-22 04:39:00,67.3,63.3,29.64,SE,135,1.0,6.0,87,0.00,,,0.00,Wunderground v.1.13,2013-07-22 09:39:00,
2013-07-22 04:41:00,67.3,63.3,29.65,South,180,1.0,3.0,87,0.00,,,0.00,Wunderground v.1.13,2013-07-22 09:41:00,
2013-07-22 04:43:00,67.2,63.2,29.64,South,180,2.0,5.0,87,0.00,,,0.00,Wunderground v.1.13,2013-07-22 09:43:00,
2013-07-22 04:45:00,67.3,63.3,29.64,South,180,0.0,1.0,87,0.00,,,0.00,Wunderground v.1.13,2013-07-22 09:45:00,
2013-07-22 04:47:00,67.3,63.3,29.64,SSE,158,2.0,5.0,87,0.00,,,0.00,Wunderground v.1.13,2013-07-22 09:47:00,
2013-07-22 04:49:00,67.3,63.3,29.64,SSE,158,0.0,2.0,87,0.00,,,0.00,Wunderground v.1.13,2013-07-22 09:49:00,
2013-07-22 04:51:00,67.3,63.3,29.64,SSE,158,1.0,4.0,87,0.00,,,0.00,Wunderground v.1.13,2013-07-22 09:51:00,
2013-07-22 04:53:00,67.3,63.3,29.64,SSE,158,0.0,5.0,87,0.00,,,0.00,Wunderground v.1.13,2013-07-22 09:53:00,
2013-07-22 04:55:00,67.4,63.7,29.64,SSE,158,2.0,5.0,88,0.00,,,0.00,Wunderground v.1.13,2013-07-22 09:55:00,
2013-07-22 04:57:00,67.4,63.7,29.64,ESE,113,3.0,6.0,88,0.00,,,0.00,Wunderground v.1.13,2013-07-22 09:57:00,
2013-07-22 04:59:00,67.5,63.8,29.64,SE,135,2.0,5.0,88,0.00,,,0.00,Wunderground v.1.13,2013-07-22 09:59:00,
2013-07-22 05:01:00,67.5,63.8,29.65,ESE,113,1.0,4.0,88,0.00,,,0.00,Wunderground v.1.13,2013-07-22 10:01:00,
2013-07-22 05:03:00,67.5,63.5,29.65,SE,135,0.0,2.0,87,0.00,,,0.00,Wunderground v.1.13,2013-07-22 10:03:00,
2013-07-22 05:05:00,67.5,63.5,29.65,SSE,158,2.0,5.0,87,0.00,,,0.00,Wunderground v.1.13,2013-07-22 10:05:00,
2013-07-22 05:07:00,67.5,63.5,29.65,N/A,-737280,0.0,0.0,87,0.00,,,0.00,Wunderground v.1.13,2013-07-22 10:07:00,
2013-07-22 05:09:00,67.5,63.5,29.65,SSE,158,1.0,2.0,87,0.00,,,0.00,Wunderground v.1.13,2013-07-22 10:09:00,
2013-07-22 05:11:00,67.4,63.4,29.65,SSE,158,1.0,3.0,87,0.00,,,0.00,Wunderground v.1.13,2013-07-22 10:11:00,
2013-07-22 05:13:00,67.4,63.4,29.65,SSE,158,0.0,1.0,87,0.00,,,0.00,Wunderground v.1.13,2013-07-22 10:13:00,
2013-07-22 05:15:00,67.6,63.9,29.64,ESE,113,5.0,7.0,88,0.00,,,0.00,Wunderground v.1.13,2013-07-22 10:15:00,
2013-07-22 05:17:00,67.8,64.1,29.65,SE,135,6.0,8.0,88,0.00,,,0.00,Wunderground v.1.13,2013-07-22 10:17:00,
2013-07-22 05:19:00,67.9,64.2,29.65,ESE,113,5.0,7.0,88,0.00,,,0.00,Wunderground v.1.13,2013-07-22 10:19:00,
2013-07-22 05:21:00,68.0,64.3,29.65,ESE,113,5.0,7.0,88,0.00,,,0.00,Wunderground v.1.13,2013-07-22 10:21:00,
2013-07-22 05:23:00,68.1,64.4,29.65,ESE,113,6.0,7.0,88,0.00,,,0.00,Wunderground v.1.13,2013-07-22 10:23:00,
2013-07-22 05:25:00,68.1,64.4,29.64,ESE,113,6.0,7.0,88,0.00,,,0.00,Wunderground v.1.13,2013-07-22 10:25:00,
2013-07-22 05:27:00,68.1,64.4,29.64,ESE,113,5.0,7.0,88,0.00,,,0.00,Wunderground v.1.13,2013-07-22 10:27:00,
2013-07-22 05:29:00,68.1,64.4,29.64,ESE,113,6.0,8.0,88,0.00,,,0.00,Wunderground v.1.13,2013-07-22 10:29:00,
2013-07-22 05:31:00,68.1,64.4,29.64,ESE,113,7.0,9.0,88,0.00,,,0.00,Wunderground v.1.13,2013-07-22 10:31:00,
2013-07-22 05:33:00,68.0,64.3,29.64,ESE,113,6.0,8.0,88,0.00,,,0.00,Wunderground v.1.13,2013-07-22 10:33:00,
2013-07-22 05:35:00,68.0,64.3,29.64,ESE,113,7.0,9.0,88,0.00,,,0.00,Wunderground v.1.13,2013-07-22 10:35:00,
2013-07-22 05:37:00,68.1,64.4,29.64,ESE,113,6.0,8.0,88,0.00,,,0.00,Wunderground v.1.13,2013-07-22 10:37:00,
2013-07-22 05:39:00,68.1,64.4,29.64,ESE,113,7.0,10.0,88,0.00,,,0.00,Wunderground v.1.13,2013-07-22 10:39:00,
2013-07-22 05:41:00,68.1,64.4,29.63,ESE,113,7.0,9.0,88,0.00,,,0.00,Wunderground v.1.13,2013-07-22 10:41:00,
2013-07-22 05:43:00,68.0,64.3,29.63,ESE,113,8.0,11.0,88,0.00,,,0.00,Wunderground v.1.13,2013-07-22 10:43:00,
2013-07-22 05:45:00,68.0,64.3,29.63,ESE,113,6.0,8.0,88,0.00,,,0.00,Wunderground v.1.13,2013-07-22 10:45:00,
2013-07-22 05:47:00,68.0,64.3,29.63,ESE,113,5.0,7.0,88,0.00,,,0.00,Wunderground v.1.13,2013-07-22 10:47:00,
2013-07-22 05:49:00,68.0,64.3,29.63,ESE,113,5.0,7.0,88,0.00,,,0.00,Wunderground v.1.13,2013-07-22 10:49:00,
2013-07-22 05:51:00,67.9,64.2,29.63,ESE,113,4.0,7.0,88,0.00,,,0.00,Wunderground v.1.13,2013-07-22 10:51:00,
2013-07-22 05:53:00,67.8,64.1,29.63,ESE,113,4.0,7.0,88,0.00,,,0.00,Wunderground v.1.13,2013-07-22 10:53:00,
2013-07-22 05:55:00,67.8,64.1,29.63,SE,135,2.0,6.0,88,0.00,,,0.00,Wunderground v.1.13,2013-07-22 10:55:00,
2013-07-22 05:57:00,67.7,64.0,29.63,SE,135,1.0,4.0,88,0.00,,,0.00,Wunderground v.1.13,2013-07-22 10:57:00,
2013-07-22 05:59:00,67.7,64.0,29.63,ESE,113,4.0,7.0,88,0.00,,,0.00,Wunderground v.1.13,2013-07-22 10:59:00,
2013-07-22 06:01:00,67.8,64.4,29.63,ESE,113,2.0,7.0,89,0.00,,,0.00,Wunderground v.1.13,2013-07-22 11:01:00,
2013-07-22 06:03:00,67.7,64.0,29.63,SW,225,1.0,2.0,88,0.00,,,0.00,Wunderground v.1.13,2013-07-22 11:03:00,
2013-07-22 06:05:00,67.6,63.9,29.63,SW,225,1.0,2.0,88,0.00,,,0.00,Wunderground v.1.13,2013-07-22 11:05:00,
2013-07-22 06:07:00,67.5,63.8,29.63,SSW,203,1.0,2.0,88,0.00,,,0.00,Wunderground v.1.13,2013-07-22 11:07:00,
2013-07-22 06:09:00,67.5,63.8,29.63,SSW,203,0.0,2.0,88,0.00,,,0.00,Wunderground v.1.13,2013-07-22 11:09:00,
2013-07-22 06:11:00,67.4,63.7,29.63,SW,225,3.0,5.0,88,0.00,,,0.00,Wunderground v.1.13,2013-07-22 11:11:00,
2013-07-22 06:13:00,67.4,63.7,29.63,ESE,113,4.0,7.0,88,0.00,,,0.00,Wunderground v.1.13,2013-07-22 11:13:00,
2013-07-22 06:15:00,67.4,63.7,29.63,ESE,113,8.0,15.0,88,0.00,,,0.00,Wunderground v.1.13,2013-07-22 11:15:00,
2013-07-22 06:17:00,67.5,64.1,29.63,ESE,113,5.0,7.0,89,0.00,,,0.00,Wunderground v.1.13,2013-07-22 11:17:00,
2013-07-22 06:19:00,67.6,64.2,29.63,ESE,113,6.0,7.0,89,0.00,,,0.00,Wunderground v.1.13,2013-07-22 11:19:00,
2013-07-22 06:21:00,67.7,64.3,29.63,SE,135,5.0,8.0,89,0.00,,,0.00,Wunderground v.1.13,2013-07-22 11:21:00,
2013-07-22 06:23:00,67.8,64.4,29.63,ESE,113,6.0,8.0,89,0.00,,,0.00,Wunderground v.1.13,2013-07-22 11:23:00,
2013-07-22 06:25:00,67.7,64.3,29.62,ESE,113,5.0,7.0,89,0.00,,,0.00,Wunderground v.1.13,2013-07-22 11:25:00,
2013-07-22 06:27:00,67.7,64.3,29.62,SE,135,6.0,10.0,89,0.00,,,0.00,Wunderground v.1.13,2013-07-22 11:27:00,
2013-07-22 06:29:00,67.7,64.3,29.62,ESE,113,6.0,8.0,89,0.00,,,0.00,Wunderground v.1.13,2013-07-22 11:29:00,
2013-07-22 06:31:00,67.8,64.4,29.62,ESE,113,8.0,10.0,89,0.00,,,0.00,Wunderground v.1.13,2013-07-22 11:31:00,
2013-07-22 06:33:00,67.7,64.3,29.62,ESE,113,5.0,9.0,89,0.00,,,0.00,Wunderground v.1.13,2013-07-22 11:33:00,
2013-07-22 06:35:00,67.8,64.4,29.62,SW,225,4.0,7.0,89,0.00,,,0.00,Wunderground v.1.13,2013-07-22 11:35:00,
2013-07-22 06:37:00,67.7,64.3,29.62,ESE,113,5.0,8.0,89,0.00,,,0.00,Wunderground v.1.13,2013-07-22 11:37:00,
2013-07-22 06:39:00,67.7,64.3,29.62,ESE,113,7.0,9.0,89,0.00,,,0.00,Wunderground v.1.13,2013-07-22 11:39:00,
2013-07-22 06:41:00,67.7,64.3,29.61,ESE,113,8.0,9.0,89,0.00,,,0.00,Wunderground v.1.13,2013-07-22 11:41:00,
2013-07-22 06:43:00,67.7,64.3,29.61,ESE,113,5.0,10.0,89,0.00,,,0.00,Wunderground v.1.13,2013-07-22 11:43:00,
2013-07-22 06:45:00,67.7,64.3,29.61,ESE,113,7.0,9.0,89,0.00,,,0.00,Wunderground v.1.13,2013-07-22 11:45:00,
2013-07-22 06:47:00,67.8,64.4,29.61,ESE,113,8.0,13.0,89,0.00,,,0.00,Wunderground v.1.13,2013-07-22 11:47:00,
2013-07-22 06:49:00,67.8,64.4,29.61,ESE,113,10.0,15.0,89,0.00,,,0.00,Wunderground v.1.13,2013-07-22 11:49:00,
2013-07-22 06:51:00,67.8,64.4,29.61,ESE,113,8.0,12.0,89,0.00,,,0.00,Wunderground v.1.13,2013-07-22 11:51:00,
2013-07-22 06:53:00,67.9,64.5,29.61,ESE,113,8.0,11.0,89,0.00,,,0.00,Wunderground v.1.13,2013-07-22 11:53:00,
2013-07-22 06:55:00,67.9,64.5,29.61,ESE,113,9.0,11.0,89,0.00,,,0.00,Wunderground v.1.13,2013-07-22 11:55:00,
2013-07-22 06:57:00,67.9,64.5,29.60,ESE,113,8.0,13.0,89,0.00,,,0.00,Wunderground v.1.13,2013-07-22 11:57:00,
2013-07-22 06:59:00,67.9,64.5,29.60,ESE,113,7.0,9.0,89,0.00,,,0.00,Wunderground v.1.13,2013-07-22 11:59:00,
2013-07-22 07:01:00,67.9,64.5,29.60,ESE,113,8.0,14.0,89,0.00,,,0.00,Wunderground v.1.13,2013-07-22 12:01:00,
2013-07-22 07:03:00,67.9,64.5,29.61,SE,135,6.0,10.0,89,0.00,,,0.00,Wunderground v.1.13,2013-07-22 12:03:00,
2013-07-22 07:05:00,67.9,64.5,29.60,ESE,113,5.0,9.0,89,0.00,,,0.00,Wunderground v.1.13,2013-07-22 12:05:00,
2013-07-22 07:07:00,67.9,64.2,29.60,SSE,158,3.0,7.0,88,0.00,,,0.00,Wunderground v.1.13,2013-07-22 12:07:00,
2013-07-22 07:09:00,67.9,64.2,29.61,ESE,113,6.0,9.0,88,0.00,,,0.00,Wunderground v.1.13,2013-07-22 12:09:00,
2013-07-22 07:11:00,68.1,64.7,29.60,SE,135,4.0,8.0,89,0.00,,,0.00,Wunderground v.1.13,2013-07-22 12:11:00,
2013-07-22 07:13:00,68.1,64.4,29.61,ESE,113,6.0,12.0,88,0.00,,,0.00,Wunderground v.1.13,2013-07-22 12:13:00,
2013-07-22 07:15:00,68.1,64.4,29.61,SSE,158,1.0,3.0,88,0.00,,,0.00,Wunderground v.1.13,2013-07-22 12:15:00,
2013-07-22 07:17:00,68.1,64.4,29.61,South,180,3.0,7.0,88,0.00,,,0.00,Wunderground v.1.13,2013-07-22 12:17:00,
2013-07-22 07:19:00,68.1,64.4,29.61,SE,135,4.0,7.0,88,0.00,,,0.00,Wunderground v.1.13,2013-07-22 12:19:00,
2013-07-22 07:21:00,68.1,64.4,29.61,SSW,203,2.0,6.0,88,0.00,,,0.00,Wunderground v.1.13,2013-07-22 12:21:00,
2013-07-22 07:23:00,68.1,64.4,29.61,SW,225,1.0,2.0,88,0.00,,,0.00,Wunderground v.1.13,2013-07-22 12:23:00,
2013-07-22 07:25:00,68.1,64.4,29.61,WSW,240,3.0,9.0,88,0.00,,,0.00,Wunderground v.1.13,2013-07-22 12:25:00,
2013-07-22 07:28:00,68.1,64.4,29.61,SW,218,3.0,9.0,88,0.00,,,0.00,Wunderground v.1.13,2013-07-22 12:28:00,
2013-07-22 07:32:00,68.2,64.5,29.61,ESE,110,3.0,6.0,88,0.00,,,0.00,Wunderground v.1.13,2013-07-22 12:32:00,
2013-07-22 07:33:00,68.3,64.6,29.61,SSE,150,3.0,6.0,88,0.00,,,0.00,Wunderground v.1.13,2013-07-22 12:33:00,
2013-07-22 07:35:00,68.3,64.3,29.61,SSW,208,3.0,3.0,87,0.00,,,0.00,Wunderground v.1.13,2013-07-22 12:35:00,
2013-07-22 07:37:00,68.3,64.6,29.61,SSW,195,3.0,6.0,88,0.00,,,0.00,Wunderground v.1.13,2013-07-22 12:37:00,
2013-07-22 07:38:00,68.4,64.7,29.60,South,184,3.0,6.0,88,0.00,,,0.00,Wunderground v.1.13,2013-07-22 12:38:00,
2013-07-22 07:41:00,68.5,64.5,29.60,SE,140,2.0,6.0,87,0.00,,,0.00,Wunderground v.1.13,2013-07-22 12:41:00,
2013-07-22 07:42:00,68.5,64.8,29.59,SSE,159,2.0,6.0,88,0.00,,,0.00,Wunderground v.1.13,2013-07-22 12:42:00,
2013-07-22 07:43:00,68.6,64.9,29.59,SE,144,2.0,6.0,88,0.00,,,0.00,Wunderground v.1.13,2013-07-22 12:43:00,
2013-07-22 07:45:00,68.7,65.0,29.60,SE,132,2.0,7.0,88,0.00,,,0.00,Wunderground v.1.13,2013-07-22 12:45:00,
2013-07-22 07:46:00,68.8,65.1,29.60,ESE,112,2.0,8.0,88,0.00,,,0.00,Wunderground v.1.13,2013-07-22 12:46:00,
2013-07-22 07:47:00,68.8,64.8,29.59,South,176,2.0,8.0,87,0.00,,,0.00,Wunderground v.1.13,2013-07-22 12:47:00,
2013-07-22 07:48:00,68.9,64.9,29.59,South,176,2.0,8.0,87,0.00,,,0.00,Wunderground v.1.13,2013-07-22 12:48:00,
2013-07-22 07:50:00,69.0,65.0,29.59,SSE,148,2.0,2.0,87,0.00,,,0.00,Wunderground v.1.13,2013-07-22 12:50:00,
2013-07-22 07:54:00,69.3,65.3,29.59,SSE,159,2.0,2.0,87,0.00,,,0.00,Wunderground v.1.13,2013-07-22 12:54:00,
2013-07-22 07:55:00,69.4,65.4,29.59,SSE,162,2.0,2.0,87,0.00,,,0.00,Wunderground v.1.13,2013-07-22 12:55:00,
2013-07-22 07:56:00,69.5,65.5,29.59,SSE,160,2.0,2.0,87,0.00,,,0.00,Wunderground v.1.13,2013-07-22 12:56:00,
2013-07-22 07:57:00,69.5,65.5,29.59,SSE,160,1.0,2.0,87,0.00,,,0.00,Wunderground v.1.13,2013-07-22 12:57:00,
2013-07-22 07:58:00,69.6,65.6,29.59,SSE,157,1.0,4.0,87,0.00,,,0.00,Wunderground v.1.13,2013-07-22 12:58:00,
2013-07-22 08:02:00,69.7,65.3,29.59,SW,229,2.0,4.0,86,0.00,,,0.00,Wunderground v.1.13,2013-07-22 13:02:00,
2013-07-22 08:04:00,69.7,65.3,29.59,SSW,200,3.0,6.0,86,0.00,,,0.00,Wunderground v.1.13,2013-07-22 13:04:00,
2013-07-22 08:05:00,69.7,65.3,29.59,West,264,3.0,6.0,86,0.00,,,0.00,Wunderground v.1.13,2013-07-22 13:05:00,
2013-07-22 08:08:00,69.7,65.3,29.59,ESE,120,3.0,3.0,86,0.00,,,0.00,Wunderground v.1.13,2013-07-22 13:08:00,
2013-07-22 08:10:00,69.7,65.3,29.59,SE,130,3.0,6.0,86,0.00,,,0.00,Wunderground v.1.13,2013-07-22 13:10:00,
2013-07-22 08:11:00,69.7,65.3,29.59,South,185,3.0,4.0,86,0.00,,,0.00,Wunderground v.1.13,2013-07-22 13:11:00,
2013-07-22 08:15:00,69.7,65.3,29.59,WSW,254,3.0,6.0,86,0.00,,,0.00,Wunderground v.1.13,2013-07-22 13:15:00,
2013-07-22 08:16:00,69.7,65.3,29.59,WSW,253,3.0,3.0,86,0.00,,,0.00,Wunderground v.1.13,2013-07-22 13:16:00,
2013-07-22 08:17:00,69.7,65.3,29.59,WSW,254,3.0,3.0,86,0.00,,,0.00,Wunderground v.1.13,2013-07-22 13:17:00,
2013-07-22 08:18:00,69.7,65.3,29.59,WSW,254,3.0,3.0,86,0.00,,,0.00,Wunderground v.1.13,2013-07-22 13:18:00,
2013-07-22 08:22:00,70.0,65.6,29.59,ESE,110,3.0,7.0,86,0.00,,,0.00,Wunderground v.1.13,2013-07-22 13:22:00,
2013-07-22 08:23:00,70.1,65.7,29.59,SE,138,3.0,7.0,86,0.00,,,0.00,Wunderground v.1.13,2013-07-22 13:23:00,
2013-07-22 08:24:00,70.3,66.2,29.59,SE,126,3.0,7.0,87,0.00,,,0.00,Wunderground v.1.13,2013-07-22 13:24:00,
2013-07-22 08:25:00,70.4,66.0,29.59,SSW,206,3.0,7.0,86,0.00,,,0.00,Wunderground v.1.13,2013-07-22 13:25:00,
2013-07-22 08:27:00,70.5,66.1,29.59,SSE,148,3.0,3.0,86,0.00,,,0.00,Wunderground v.1.13,2013-07-22 13:27:00,
2013-07-22 08:29:00,70.6,66.2,29.59,SW,224,3.0,3.0,86,0.00,,,0.00,Wunderground v.1.13,2013-07-22 13:29:00,
2013-07-22 08:30:00,70.6,65.9,29.59,East,98,3.0,3.0,85,0.00,,,0.00,Wunderground v.1.13,2013-07-22 13:30:00,
2013-07-22 08:31:00,70.7,66.0,29.59,West,259,3.0,3.0,85,0.00,,,0.00,Wunderground v.1.13,2013-07-22 13:31:00,
2013-07-22 08:32:00,70.7,66.0,29.59,SSE,165,3.0,4.0,85,0.00,,,0.00,Wunderground v.1.13,2013-07-22 13:32:00,
2013-07-22 08:34:00,70.8,66.1,29.59,West,261,3.0,4.0,85,0.00,,,0.00,Wunderground v.1.13,2013-07-22 13:34:00,
2013-07-22 08:36:00,70.9,66.2,29.59,ESE,119,3.0,4.0,85,0.00,,,0.00,Wunderground v.1.13,2013-07-22 13:36:00,
2013-07-22 08:37:00,71.0,66.3,29.59,SE,130,2.0,4.0,85,0.00,,,0.00,Wunderground v.1.13,2013-07-22 13:37:00,
2013-07-22 08:38:00,71.1,66.4,29.59,SE,145,2.0,4.0,85,0.00,,,0.00,Wunderground v.1.13,2013-07-22 13:38:00,
2013-07-22 08:39:00,71.2,66.5,29.59,West,269,2.0,4.0,85,0.00,,,0.00,Wunderground v.1.13,2013-07-22 13:39:00,
2013-07-22 08:41:00,71.5,66.8,29.59,SSE,167,2.0,4.0,85,0.00,,,0.00,Wunderground v.1.13,2013-07-22 13:41:00,
2013-07-22 08:45:00,71.8,66.7,29.59,West,271,2.0,7.0,84,0.00,,,0.00,Wunderground v.1.13,2013-07-22 13:45:00,
2013-07-22 08:46:00,71.9,66.8,29.58,ESE,113,2.0,7.0,84,0.00,,,0.00,Wunderground v.1.13,2013-07-22 13:46:00,
2013-07-22 08:48:00,72.1,67.0,29.58,ESE,111,3.0,4.0,84,0.00,,,0.00,Wunderground v.1.13,2013-07-22 13:48:00,
2013-07-22 08:51:00,72.3,66.8,29.58,SSW,198,3.0,5.0,83,0.00,,,0.00,Wunderground v.1.13,2013-07-22 13:51:00,
2013-07-22 08:52:00,72.4,66.9,29.58,SE,130,3.0,3.0,83,0.00,,,0.00,Wunderground v.1.13,2013-07-22 13:52:00,
2013-07-22 08:54:00,72.6,67.1,29.58,SE,142,3.0,6.0,83,0.00,,,0.00,Wunderground v.1.13,2013-07-22 13:54:00,
2013-07-22 08:55:00,72.6,67.1,29.58,South,173,3.0,6.0,83,0.00,,,0.00,Wunderground v.1.13,2013-07-22 13:55:00,
2013-07-22 08:57:00,72.9,67.4,29.58,SE,126,2.0,2.0,83,0.00,,,0.00,Wunderground v.1.13,2013-07-22 13:57:00,
2013-07-22 08:58:00,73.0,67.5,29.58,WSW,237,2.0,2.0,83,0.00,,,0.00,Wunderground v.1.13,2013-07-22 13:58:00,
2013-07-22 08:59:00,73.0,67.2,29.58,SW,222,3.0,3.0,82,0.00,,,0.00,Wunderground v.1.13,2013-07-22 13:59:00,
2013-07-22 09:02:00,73.3,67.5,29.58,SW,234,2.0,2.0,82,0.00,,,0.00,Wunderground v.1.13,2013-07-22 14:02:00,
2013-07-22 09:05:00,73.6,67.4,29.58,West,259,3.0,4.0,81,0.00,,,0.00,Wunderground v.1.13,2013-07-22 14:05:00,
2013-07-22 09:07:00,73.9,68.1,29.58,SE,129,2.0,2.0,82,0.00,,,0.00,Wunderground v.1.13,2013-07-22 14:07:00,
2013-07-22 09:08:00,74.0,68.2,29.58,SE,129,2.0,4.0,82,0.00,,,0.00,Wunderground v.1.13,2013-07-22 14:08:00,
2013-07-22 09:11:00,74.5,68.3,29.58,ESE,111,2.0,4.0,81,0.00,,,0.00,Wunderground v.1.13,2013-07-22 14:11:00,
2013-07-22 09:13:00,74.9,68.7,29.57,ESE,113,2.0,6.0,81,0.00,,,0.00,Wunderground v.1.13,2013-07-22 14:13:00,
2013-07-22 09:14:00,75.0,68.4,29.57,SW,221,2.0,6.0,80,0.00,,,0.00,Wunderground v.1.13,2013-07-22 14:14:00,
2013-07-22 09:18:00,75.2,68.2,29.57,SSE,151,3.0,6.0,79,0.00,,,0.00,Wunderground v.1.13,2013-07-22 14:18:00,
2013-07-22 09:22:00,75.5,68.5,29.58,WSW,257,3.0,6.0,79,0.00,,,0.00,Wunderground v.1.13,2013-07-22 14:22:00,
2013-07-22 09:23:00,75.6,68.6,29.58,WSW,249,3.0,6.0,79,0.00,,,0.00,Wunderground v.1.13,2013-07-22 14:23:00,
2013-07-22 09:24:00,75.7,68.7,29.58,WSW,249,3.0,6.0,79,0.00,,,0.00,Wunderground v.1.13,2013-07-22 14:24:00,
2013-07-22 09:26:00,75.9,68.9,29.58,South,183,3.0,6.0,79,0.00,,,0.00,Wunderground v.1.13,2013-07-22 14:26:00,
2013-07-22 09:28:00,76.0,68.6,29.58,WSW,254,3.0,5.0,78,0.00,,,0.00,Wunderground v.1.13,2013-07-22 14:28:00,
2013-07-22 09:29:00,76.0,68.6,29.57,WSW,246,3.0,5.0,78,0.00,,,0.00,Wunderground v.1.13,2013-07-22 14:29:00,
2013-07-22 09:30:00,76.0,68.6,29.57,WSW,253,3.0,5.0,78,0.00,,,0.00,Wunderground v.1.13,2013-07-22 14:30:00,
2013-07-22 09:32:00,76.1,68.7,29.57,SSW,211,3.0,4.0,78,0.00,,,0.00,Wunderground v.1.13,2013-07-22 14:32:00,
2013-07-22 09:34:00,76.1,68.7,29.57,West,267,2.0,4.0,78,0.00,,,0.00,Wunderground v.1.13,2013-07-22 14:34:00,
2013-07-22 09:36:00,76.3,68.9,29.57,WSW,249,2.0,6.0,78,0.00,,,0.00,Wunderground v.1.13,2013-07-22 14:36:00,
2013-07-22 09:38:00,76.4,68.7,29.57,West,263,3.0,6.0,77,0.00,,,0.00,Wunderground v.1.13,2013-07-22 14:38:00,
2013-07-22 09:39:00,76.4,68.7,29.57,WSW,256,3.0,6.0,77,0.00,,,0.00,Wunderground v.1.13,2013-07-22 14:39:00,
2013-07-22 09:40:00,76.4,68.7,29.57,West,273,3.0,6.0,77,0.00,,,0.00,Wunderground v.1.13,2013-07-22 14:40:00,
2013-07-22 09:45:00,76.6,68.8,29.57,SSE,148,3.0,4.0,77,0.00,,,0.00,Wunderground v.1.13,2013-07-22 14:45:00,
2013-07-22 09:46:00,76.7,68.9,29.57,SW,233,3.0,6.0,77,0.00,,,0.00,Wunderground v.1.13,2013-07-22 14:46:00,
2013-07-22 09:47:00,76.7,68.6,29.57,WSW,253,3.0,3.0,76,0.00,,,0.00,Wunderground v.1.13,2013-07-22 14:47:00,
2013-07-22 09:48:00,76.6,68.5,29.57,WSW,258,3.0,3.0,76,0.00,,,0.00,Wunderground v.1.13,2013-07-22 14:48:00,
2013-07-22 09:50:00,76.7,68.9,29.57,WSW,255,2.0,4.0,77,0.00,,,0.00,Wunderground v.1.13,2013-07-22 14:50:00,
2013-07-22 09:53:00,76.8,69.0,29.57,SSW,207,2.0,5.0,77,0.00,,,0.00,Wunderground v.1.13,2013-07-22 14:53:00,
2013-07-22 09:54:00,76.8,69.0,29.57,SSW,207,2.0,5.0,77,0.00,,,0.00,Wunderground v.1.13,2013-07-22 14:54:00,
2013-07-22 09:55:00,77.0,69.2,29.57,WSW,242,2.0,5.0,77,0.00,,,0.00,Wunderground v.1.13,2013-07-22 14:55:00,
2013-07-22 09:57:00,77.1,68.9,29.57,WSW,246,2.0,7.0,76,0.00,,,0.00,Wunderground v.1.13,2013-07-22 14:57:00,
2013-07-22 09:58:00,77.1,68.9,29.57,WSW,241,2.0,7.0,76,0.00,,,0.00,Wunderground v.1.13,2013-07-22 14:58:00,
2013-07-22 10:01:00,77.1,68.9,29.57,WSW,248,3.0,7.0,76,0.00,,,0.00,Wunderground v.1.13,2013-07-22 15:01:00,
2013-07-22 10:02:00,77.1,68.9,29.57,West,264,3.0,4.0,76,0.00,,,0.00,Wunderground v.1.13,2013-07-22 15:02:00,
2013-07-22 10:03:00,77.1,68.6,29.57,West,278,3.0,4.0,75,0.00,,,0.00,Wunderground v.1.13,2013-07-22 15:03:00,
2013-07-22 10:05:00,77.1,68.6,29.57,WSW,252,4.0,6.0,75,0.00,,,0.00,Wunderground v.1.13,2013-07-22 15:05:00,
2013-07-22 10:08:00,77.1,68.9,29.57,WSW,251,4.0,5.0,76,0.00,,,0.00,Wunderground v.1.13,2013-07-22 15:08:00,
2013-07-22 10:10:00,77.2,69.0,29.57,West,275,4.0,6.0,76,0.00,,,0.00,Wunderground v.1.13,2013-07-22 15:10:00,
2013-07-22 10:12:00,77.1,68.9,29.57,West,265,4.0,4.0,76,0.00,,,0.00,Wunderground v.1.13,2013-07-22 15:12:00,
2013-07-22 10:15:00,77.1,68.9,29.57,South,170,3.0,9.0,76,0.00,,,0.00,Wunderground v.1.13,2013-07-22 15:15:00,
2013-07-22 10:16:00,77.1,68.9,29.57,SSW,212,3.0,3.0,76,0.00,,,0.00,Wunderground v.1.13,2013-07-22 15:16:00,
2013-07-22 10:17:00,77.2,69.0,29.57,ESE,120,3.0,3.0,76,0.00,,,0.00,Wunderground v.1.13,2013-07-22 15:17:00,
2013-07-22 10:22:00,77.8,69.6,29.57,West,261,2.0,8.0,76,0.00,,,0.00,Wunderground v.1.13,2013-07-22 15:22:00,
2013-07-22 10:23:00,77.9,69.7,29.57,SSE,167,3.0,8.0,76,0.00,,,0.00,Wunderground v.1.13,2013-07-22 15:23:00,
2013-07-22 10:24:00,77.9,69.3,29.57,South,186,3.0,8.0,75,0.00,,,0.00,Wunderground v.1.13,2013-07-22 15:24:00,
2013-07-22 10:28:00,78.0,69.4,29.57,WSW,257,3.0,4.0,75,0.00,,,0.00,Wunderground v.1.13,2013-07-22 15:28:00,
2013-07-22 10:32:00,78.3,69.3,29.57,WSW,252,3.0,7.0,74,0.00,,,0.00,Wunderground v.1.13,2013-07-22 15:32:00,
2013-07-22 10:33:00,78.4,69.4,29.57,SW,217,3.0,7.0,74,0.00,,,0.00,Wunderground v.1.13,2013-07-22 15:33:00,
2013-07-22 10:34:00,78.4,69.4,29.57,SW,217,2.0,7.0,74,0.00,,,0.00,Wunderground v.1.13,2013-07-22 15:34:00,
2013-07-22 10:36:00,78.4,69.4,29.57,SW,215,2.0,2.0,74,0.00,,,0.00,Wunderground v.1.13,2013-07-22 15:36:00,
2013-07-22 10:38:00,78.4,69.4,29.57,West,261,1.0,2.0,74,0.00,,,0.00,Wunderground v.1.13,2013-07-22 15:38:00,
2013-07-22 10:39:00,78.4,69.4,29.57,West,263,2.0,5.0,74,0.00,,,0.00,Wunderground v.1.13,2013-07-22 15:39:00,
2013-07-22 10:41:00,78.3,68.9,29.57,West,279,2.0,2.0,73,0.00,,,0.00,Wunderground v.1.13,2013-07-22 15:41:00,
2013-07-22 10:42:00,78.3,69.3,29.57,SSW,202,2.0,5.0,74,0.00,,,0.00,Wunderground v.1.13,2013-07-22 15:42:00,
2013-07-22 10:44:00,78.3,69.7,29.57,SSW,211,1.0,5.0,75,0.00,,,0.00,Wunderground v.1.13,2013-07-22 15:44:00,
2013-07-22 10:46:00,78.4,69.4,29.57,South,186,2.0,4.0,74,0.00,,,0.00,Wunderground v.1.13,2013-07-22 15:46:00,
2013-07-22 10:51:00,78.4,69.0,29.57,WSW,237,2.0,2.0,73,0.00,,,0.00,Wunderground v.1.13,2013-07-22 15:51:00,
2013-07-22 10:52:00,78.5,69.1,29.57,West,269,2.0,2.0,73,0.00,,,0.00,Wunderground v.1.13,2013-07-22 15:52:00,
2013-07-22 10:54:00,78.7,69.3,29.57,WSW,240,3.0,5.0,73,0.00,,,0.00,Wunderground v.1.13,2013-07-22 15:54:00,
2013-07-22 10:55:00,78.8,69.4,29.57,SSE,167,3.0,5.0,73,0.00,,,0.00,Wunderground v.1.13,2013-07-22 15:55:00,
2013-07-22 11:00:00,79.1,69.3,29.57,West,272,4.0,6.0,72,0.00,,,0.00,Wunderground v.1.13,2013-07-22 16:00:00,
2013-07-22 11:01:00,79.1,69.7,29.57,West,265,4.0,4.0,73,0.00,,,0.00,Wunderground v.1.13,2013-07-22 16:01:00,
2013-07-22 11:03:00,79.1,69.3,29.57,West,267,4.0,4.0,72,0.00,,,0.00,Wunderground v.1.13,2013-07-22 16:03:00,
2013-07-22 11:04:00,79.1,69.3,29.57,WSW,238,4.0,9.0,72,0.00,,,0.00,Wunderground v.1.13,2013-07-22 16:04:00,
2013-07-22 11:05:00,79.1,69.3,29.57,WSW,247,4.0,9.0,72,0.00,,,0.00,Wunderground v.1.13,2013-07-22 16:05:00,
2013-07-22 11:07:00,79.2,69.8,29.57,West,265,4.0,6.0,73,0.00,,,0.00,Wunderground v.1.13,2013-07-22 16:07:00,
2013-07-22 11:08:00,79.2,69.4,29.57,WSW,250,4.0,6.0,72,0.00,,,0.00,Wunderground v.1.13,2013-07-22 16:08:00,
2013-07-22 11:10:00,79.2,69.4,29.57,WSW,254,3.0,6.0,72,0.00,,,0.00,Wunderground v.1.13,2013-07-22 16:10:00,
2013-07-22 11:14:00,79.2,69.4,29.57,West,261,4.0,5.0,72,0.00,,,0.00,Wunderground v.1.13,2013-07-22 16:14:00,
2013-07-22 11:15:00,79.2,69.4,29.57,West,262,3.0,5.0,72,0.00,,,0.00,Wunderground v.1.13,2013-07-22 16:15:00,
2013-07-22 11:16:00,79.3,69.5,29.57,West,261,3.0,4.0,72,0.00,,,0.00,Wunderground v.1.13,2013-07-22 16:16:00,
2013-07-22 11:21:00,79.5,69.7,29.57,West,263,3.0,4.0,72,0.00,,,0.00,Wunderground v.1.13,2013-07-22 16:21:00,
2013-07-22 11:22:00,79.4,69.6,29.57,West,277,3.0,7.0,72,0.00,,,0.00,Wunderground v.1.13,2013-07-22 16:22:00,
2013-07-22 11:23:00,79.3,69.5,29.57,West,277,3.0,7.0,72,0.00,,,0.00,Wunderground v.1.13,2013-07-22 16:23:00,
2013-07-22 11:25:00,79.3,69.9,29.57,West,268,3.0,7.0,73,0.00,,,0.00,Wunderground v.1.13,2013-07-22 16:25:00,
2013-07-22 11:27:00,79.3,69.5,29.57,West,267,4.0,4.0,72,0.00,,,0.00,Wunderground v.1.13,2013-07-22 16:27:00,
2013-07-22 11:29:00,79.2,69.0,29.57,WSW,257,4.0,6.0,71,0.00,,,0.00,Wunderground v.1.13,2013-07-22 16:29:00,
2013-07-22 11:31:00,79.1,68.9,29.57,West,261,4.0,7.0,71,0.00,,,0.00,Wunderground v.1.13,2013-07-22 16:31:00,
2013-07-22 11:32:00,79.0,69.2,29.57,West,261,4.0,4.0,72,0.00,,,0.00,Wunderground v.1.13,2013-07-22 16:32:00,
2013-07-22 11:34:00,79.0,69.2,29.57,WSW,240,4.0,7.0,72,0.00,,,0.00,Wunderground v.1.13,2013-07-22 16:34:00,
2013-07-22 11:37:00,78.7,68.9,29.57,West,275,5.0,9.0,72,0.00,,,0.00,Wunderground v.1.13,2013-07-22 16:37:00,
2013-07-22 11:38:00,78.6,68.8,29.57,West,259,5.0,6.0,72,0.00,,,0.00,Wunderground v.1.13,2013-07-22 16:38:00,
2013-07-22 11:39:00,78.6,69.2,29.57,WSW,256,5.0,6.0,73,0.00,,,0.00,Wunderground v.1.13,2013-07-22 16:39:00,
2013-07-22 11:41:00,78.6,69.2,29.57,WSW,255,5.0,6.0,73,0.00,,,0.00,Wunderground v.1.13,2013-07-22 16:41:00,
2013-07-22 11:42:00,78.7,69.3,29.57,WSW,240,5.0,6.0,73,0.00,,,0.00,Wunderground v.1.13,2013-07-22 16:42:00,
2013-07-22 11:44:00,78.8,69.0,29.57,WSW,254,6.0,6.0,72,0.00,,,0.00,Wunderground v.1.13,2013-07-22 16:44:00,
2013-07-22 11:47:00,79.0,69.2,29.57,South,178,5.0,8.0,72,0.00,,,0.00,Wunderground v.1.13,2013-07-22 16:47:00,
2013-07-22 11:48:00,79.1,69.7,29.57,WSW,256,5.0,5.0,73,0.00,,,0.00,Wunderground v.1.13,2013-07-22 16:48:00,
2013-07-22 11:49:00,79.1,69.7,29.57,WSW,256,4.0,5.0,73,0.00,,,0.00,Wunderground v.1.13,2013-07-22 16:49:00,
2013-07-22 11:50:00,79.1,69.7,29.57,West,267,4.0,5.0,73,0.00,,,0.00,Wunderground v.1.13,2013-07-22 16:50:00,
2013-07-22 11:54:00,79.7,70.3,29.57,SE,130,3.0,4.0,73,0.00,,,0.00,Wunderground v.1.13,2013-07-22 16:54:00,
2013-07-22 11:57:00,80.2,69.5,29.57,West,269,2.0,4.0,70,0.00,,,0.00,Wunderground v.1.13,2013-07-22 16:57:00,
2013-07-22 12:00:00,80.4,69.3,29.57,West,263,3.0,7.0,69,0.00,,,0.00,Wunderground v.1.13,2013-07-22 17:00:00,
2013-07-22 12:01:00,80.4,68.9,29.58,West,263,3.0,7.0,68,0.00,,,0.00,Wunderground v.1.13,2013-07-22 17:01:00,
2013-07-22 12:04:00,80.5,69.8,29.58,West,263,3.0,3.0,70,0.00,,,0.00,Wunderground v.1.13,2013-07-22 17:04:00,
2013-07-22 12:06:00,80.6,69.9,29.57,West,266,3.0,3.0,70,0.00,,,0.00,Wunderground v.1.13,2013-07-22 17:06:00,
2013-07-22 12:08:00,80.6,69.5,29.57,WSW,240,2.0,2.0,69,0.00,,,0.00,Wunderground v.1.13,2013-07-22 17:08:00,
2013-07-22 12:10:00,80.6,69.5,29.57,WSW,257,2.0,2.0,69,0.00,,,0.00,Wunderground v.1.13,2013-07-22 17:10:00,
2013-07-22 12:11:00,80.6,69.9,29.57,WSW,257,2.0,2.0,70,0.00,,,0.00,Wunderground v.1.13,2013-07-22 17:11:00,
2013-07-22 12:13:00,80.9,70.2,29.57,WSW,256,2.0,2.0,70,0.00,,,0.00,Wunderground v.1.13,2013-07-22 17:13:00,
2013-07-22 12:15:00,81.0,69.9,29.57,West,259,2.0,8.0,69,0.00,,,0.00,Wunderground v.1.13,2013-07-22 17:15:00,
2013-07-22 12:16:00,80.9,69.8,29.58,WSW,255,3.0,8.0,69,0.00,,,0.00,Wunderground v.1.13,2013-07-22 17:16:00,
2013-07-22 12:17:00,80.6,69.5,29.58,WSW,258,3.0,5.0,69,0.00,,,0.00,Wunderground v.1.13,2013-07-22 17:17:00,
2013-07-22 12:20:00,80.2,69.5,29.58,WSW,250,4.0,8.0,70,0.00,,,0.00,Wunderground v.1.13,2013-07-22 17:20:00,
2013-07-22 12:21:00,80.1,69.4,29.58,WSW,237,4.0,8.0,70,0.00,,,0.00,Wunderground v.1.13,2013-07-22 17:21:00,
2013-07-22 12:22:00,79.9,69.2,29.58,WSW,258,5.0,7.0,70,0.00,,,0.00,Wunderground v.1.13,2013-07-22 17:22:00,
2013-07-22 12:24:00,79.9,70.1,29.58,WSW,257,5.0,7.0,72,0.00,,,0.00,Wunderground v.1.13,2013-07-22 17:24:00,
2013-07-22 12:25:00,79.9,69.7,29.58,SSW,195,5.0,7.0,71,0.00,,,0.00,Wunderground v.1.13,2013-07-22 17:25:00,
2013-07-22 12:27:00,80.4,70.5,29.58,SE,146,4.0,4.0,72,0.00,,,0.00,Wunderground v.1.13,2013-07-22 17:27:00,
2013-07-22 12:28:00,80.4,70.1,29.58,SW,227,4.0,4.0,71,0.00,,,0.00,Wunderground v.1.13,2013-07-22 17:28:00,
2013-07-22 12:32:00,81.1,71.2,29.58,WSW,254,3.0,4.0,72,0.00,,,0.00,Wunderground v.1.13,2013-07-22 17:32:00,
2013-07-22 12:33:00,81.3,71.0,29.58,West,267,4.0,8.0,71,0.00,,,0.00,Wunderground v.1.13,2013-07-22 17:33:00,
2013-07-22 12:34:00,81.4,70.7,29.58,West,276,4.0,8.0,70,0.00,,,0.00,Wunderground v.1.13,2013-07-22 17:34:00,
2013-07-22 12:35:00,81.5,70.3,29.58,West,273,4.0,8.0,69,0.00,,,0.00,Wunderground v.1.13,2013-07-22 17:35:00,
2013-07-22 12:39:00,82.1,70.9,29.58,WSW,257,4.0,6.0,69,0.00,,,0.00,Wunderground v.1.13,2013-07-22 17:39:00,
2013-07-22 12:41:00,82.1,70.1,29.58,WSW,240,5.0,9.0,67,0.00,,,0.00,Wunderground v.1.13,2013-07-22 17:41:00,
2013-07-22 12:42:00,82.0,69.5,29.58,West,265,5.0,5.0,66,0.00,,,0.00,Wunderground v.1.13,2013-07-22 17:42:00,
2013-07-22 12:44:00,82.0,69.5,29.58,WSW,244,5.0,13.0,66,0.00,,,0.00,Wunderground v.1.13,2013-07-22 17:44:00,
2013-07-22 12:45:00,82.0,70.4,29.58,West,265,5.0,13.0,68,0.00,,,0.00,Wunderground v.1.13,2013-07-22 17:45:00,
2013-07-22 12:50:00,81.8,68.9,29.58,WSW,241,7.0,11.0,65,0.00,,,0.00,Wunderground v.1.13,2013-07-22 17:50:00,
2013-07-22 12:51:00,81.8,68.9,29.57,West,263,7.0,11.0,65,0.00,,,0.00,Wunderground v.1.13,2013-07-22 17:51:00,
2013-07-22 12:53:00,81.8,69.3,29.57,West,267,8.0,8.0,66,0.00,,,0.00,Wunderground v.1.13,2013-07-22 17:53:00,
2013-07-22 12:54:00,81.8,69.8,29.57,West,264,7.0,8.0,67,0.00,,,0.00,Wunderground v.1.13,2013-07-22 17:54:00,
2013-07-22 12:56:00,82.0,69.5,29.57,WNW,288,8.0,8.0,66,0.00,,,0.00,Wunderground v.1.13,2013-07-22 17:56:00,
2013-07-22 12:57:00,82.1,70.1,29.57,West,264,8.0,8.0,67,0.00,,,0.00,Wunderground v.1.13,2013-07-22 17:57:00,
2013-07-22 13:00:00,82.2,69.7,29.57,WNW,300,7.0,9.0,66,0.00,,,0.00,Wunderground v.1.13,2013-07-22 18:00:00,
2013-07-22 13:01:00,82.2,69.7,29.57,WSW,258,7.0,9.0,66,0.00,,,0.00,Wunderground v.1.13,2013-07-22 18:01:00,
2013-07-22 13:03:00,82.3,69.4,29.57,WSW,252,7.0,7.0,65,0.00,,,0.00,Wunderground v.1.13,2013-07-22 18:03:00,
2013-07-22 13:06:00,82.1,69.2,29.57,WNW,288,7.0,8.0,65,0.00,,,0.00,Wunderground v.1.13,2013-07-22 18:06:00,
2013-07-22 13:08:00,82.0,69.5,29.57,West,269,7.0,8.0,66,0.00,,,0.00,Wunderground v.1.13,2013-07-22 18:08:00,
2013-07-22 13:10:00,81.5,69.0,29.57,WNW,288,7.0,8.0,66,0.00,,,0.00,Wunderground v.1.13,2013-07-22 18:10:00,
2013-07-22 13:13:00,80.9,68.5,29.58,West,267,7.0,8.0,66,0.00,,,0.00,Wunderground v.1.13,2013-07-22 18:13:00,
2013-07-22 13:17:00,80.9,68.9,29.58,West,259,6.0,7.0,67,0.00,,,0.00,Wunderground v.1.13,2013-07-22 18:17:00,
2013-07-22 13:18:00,81.0,69.4,29.57,West,278,7.0,7.0,68,0.00,,,0.00,Wunderground v.1.13,2013-07-22 18:18:00,
2013-07-22 13:19:00,81.3,68.9,29.57,West,266,7.0,7.0,66,0.00,,,0.00,Wunderground v.1.13,2013-07-22 18:19:00,
2013-07-22 13:23:00,81.9,69.0,29.57,WSW,257,7.0,11.0,65,0.00,,,0.00,Wunderground v.1.13,2013-07-22 18:23:00,
2013-07-22 13:24:00,82.1,68.7,29.57,West,269,7.0,11.0,64,0.00,,,0.00,Wunderground v.1.13,2013-07-22 18:24:00,
2013-07-22 13:29:00,82.5,68.2,29.57,West,279,8.0,11.0,62,0.00,,,0.00,Wunderground v.1.13,2013-07-22 18:29:00,
2013-07-22 13:32:00,82.0,67.7,29.58,West,263,7.0,8.0,62,0.00,,,0.00,Wunderground v.1.13,2013-07-22 18:32:00,
2013-07-22 13:37:00,82.1,66.8,29.57,WSW,241,7.0,7.0,60,0.00,,,0.00,Wunderground v.1.13,2013-07-22 18:37:00,
2013-07-22 13:39:00,82.3,66.0,29.57,WSW,253,7.0,7.0,58,0.00,,,0.00,Wunderground v.1.13,2013-07-22 18:39:00,
2013-07-22 13:41:00,82.5,65.7,29.57,WSW,253,7.0,11.0,57,0.00,,,0.00,Wunderground v.1.13,2013-07-22 18:41:00,
2013-07-22 13:46:00,83.1,66.3,29.57,NNW,329,7.0,9.0,57,0.00,,,0.00,Wunderground v.1.13,2013-07-22 18:46:00,
2013-07-22 13:49:00,83.4,65.0,29.57,WNW,284,7.0,9.0,54,0.00,,,0.00,Wunderground v.1.13,2013-07-22 18:49:00,
2013-07-22 13:51:00,83.4,65.0,29.57,WSW,243,7.0,11.0,54,0.00,,,0.00,Wunderground v.1.13,2013-07-22 18:51:00,
2013-07-22 13:53:00,83.4,65.0,29.57,West,274,7.0,11.0,54,0.00,,,0.00,Wunderground v.1.13,2013-07-22 18:53:00,
2013-07-22 13:57:00,83.8,64.3,29.57,WSW,244,7.0,9.0,52,0.00,,,0.00,Wunderground v.1.13,2013-07-22 18:57:00,
2013-07-22 13:59:00,83.9,64.4,29.57,West,263,7.0,9.0,52,0.00,,,0.00,Wunderground v.1.13,2013-07-22 18:59:00,
2013-07-22 14:01:00,83.8,63.2,29.58,WSW,238,7.0,8.0,50,0.00,,,0.00,Wunderground v.1.13,2013-07-22 19:01:00,
2013-07-22 14:03:00,83.8,64.3,29.58,West,281,7.0,9.0,52,0.00,,,0.00,Wunderground v.1.13,2013-07-22 19:03:00,
2013-07-22 14:04:00,83.8,65.4,29.58,West,265,7.0,9.0,54,0.00,,,0.00,Wunderground v.1.13,2013-07-22 19:04:00,
2013-07-22 14:09:00,83.9,63.8,29.58,West,263,8.0,9.0,51,0.00,,,0.00,Wunderground v.1.13,2013-07-22 19:09:00,
2013-07-22 14:10:00,83.8,63.7,29.58,WSW,246,8.0,12.0,51,0.00,,,0.00,Wunderground v.1.13,2013-07-22 19:10:00,
2013-07-22 14:13:00,83.6,63.6,29.58,West,264,8.0,8.0,51,0.00,,,0.00,Wunderground v.1.13,2013-07-22 19:13:00,
2013-07-22 14:15:00,83.4,63.4,29.58,West,265,9.0,14.0,51,0.00,,,0.00,Wunderground v.1.13,2013-07-22 19:15:00,
2013-07-22 14:17:00,83.4,63.4,29.58,WSW,246,9.0,9.0,51,0.00,,,0.00,Wunderground v.1.13,2013-07-22 19:17:00,
2013-07-22 14:18:00,83.5,64.6,29.58,WNW,286,9.0,11.0,53,0.00,,,0.00,Wunderground v.1.13,2013-07-22 19:18:00,
2013-07-22 14:21:00,83.5,63.5,29.58,WNW,301,9.0,9.0,51,0.00,,,0.00,Wunderground v.1.13,2013-07-22 19:21:00,
2013-07-22 14:22:00,83.5,63.5,29.58,West,281,8.0,12.0,51,0.00,,,0.00,Wunderground v.1.13,2013-07-22 19:22:00,
2013-07-22 14:27:00,83.2,62.6,29.58,West,260,7.0,8.0,50,0.00,,,0.00,Wunderground v.1.13,2013-07-22 19:27:00,
2013-07-22 14:29:00,82.8,63.4,29.58,WNW,283,7.0,10.0,52,0.00,,,0.00,Wunderground v.1.13,2013-07-22 19:29:00,
2013-07-22 14:31:00,82.9,64.0,29.58,West,272,7.0,7.0,53,0.00,,,0.00,Wunderground v.1.13,2013-07-22 19:31:00,
2013-07-22 14:35:00,83.5,64.0,29.58,West,278,7.0,10.0,52,0.00,,,0.00,Wunderground v.1.13,2013-07-22 19:35:00,
2013-07-22 14:36:00,83.7,63.1,29.58,WSW,257,7.0,10.0,50,0.00,,,0.00,Wunderground v.1.13,2013-07-22 19:36:00,
2013-07-22 14:39:00,83.8,62.0,29.58,WNW,283,7.0,15.0,48,0.00,,,0.00,Wunderground v.1.13,2013-07-22 19:39:00,
2013-07-22 14:41:00,83.6,63.0,29.58,WNW,282,8.0,15.0,50,0.00,,,0.00,Wunderground v.1.13,2013-07-22 19:41:00,
2013-07-22 14:42:00,83.5,62.9,29.58,West,265,9.0,9.0,50,0.00,,,0.00,Wunderground v.1.13,2013-07-22 19:42:00,
2013-07-22 14:43:00,83.4,62.8,29.58,West,265,9.0,9.0,50,0.00,,,0.00,Wunderground v.1.13,2013-07-22 19:43:00,
2013-07-22 14:48:00,83.0,62.4,29.59,West,268,10.0,10.0,50,0.00,,,0.00,Wunderground v.1.13,2013-07-22 19:48:00,
2013-07-22 14:49:00,83.0,63.6,29.59,West,271,10.0,10.0,52,0.00,,,0.00,Wunderground v.1.13,2013-07-22 19:49:00,
2013-07-22 14:50:00,83.1,63.1,29.59,West,259,9.0,10.0,51,0.00,,,0.00,Wunderground v.1.13,2013-07-22 19:50:00,
2013-07-22 14:53:00,83.4,63.4,29.59,WSW,245,8.0,9.0,51,0.00,,,0.00,Wunderground v.1.13,2013-07-22 19:53:00,
2013-07-22 14:57:00,83.4,63.4,29.59,West,279,7.0,7.0,51,0.00,,,0.00,Wunderground v.1.13,2013-07-22 19:57:00,
2013-07-22 14:58:00,83.5,63.5,29.59,West,267,6.0,7.0,51,0.00,,,0.00,Wunderground v.1.13,2013-07-22 19:58:00,
2013-07-22 15:00:00,83.3,62.7,29.59,West,263,6.0,8.0,50,0.00,,,0.00,Wunderground v.1.13,2013-07-22 20:00:00,
2013-07-22 15:01:00,83.2,63.2,29.59,West,274,6.0,8.0,51,0.00,,,0.00,Wunderground v.1.13,2013-07-22 20:01:00,
2013-07-22 15:03:00,83.1,63.1,29.59,WSW,242,6.0,11.0,51,0.00,,,0.00,Wunderground v.1.13,2013-07-22 20:03:00,
2013-07-22 15:07:00,82.7,62.2,29.59,West,262,7.0,7.0,50,0.00,,,0.00,Wunderground v.1.13,2013-07-22 20:07:00,
2013-07-22 15:08:00,82.5,62.0,29.59,WNW,283,7.0,7.0,50,0.00,,,0.00,Wunderground v.1.13,2013-07-22 20:08:00,
2013-07-22 15:11:00,81.7,61.8,29.60,West,259,8.0,9.0,51,0.00,,,0.00,Wunderground v.1.13,2013-07-22 20:11:00,
2013-07-22 15:13:00,81.7,61.8,29.60,West,263,8.0,8.0,51,0.00,,,0.00,Wunderground v.1.13,2013-07-22 20:13:00,
2013-07-22 15:14:00,81.8,61.9,29.60,SW,230,7.0,8.0,51,0.00,,,0.00,Wunderground v.1.13,2013-07-22 20:14:00,
2013-07-22 15:17:00,82.2,61.1,29.60,WSW,256,7.0,7.0,49,0.00,,,0.00,Wunderground v.1.13,2013-07-22 20:17:00,
2013-07-22 15:18:00,82.3,60.6,29.59,West,263,7.0,7.0,48,0.00,,,0.00,Wunderground v.1.13,2013-07-22 20:18:00,
2013-07-22 15:19:00,82.5,61.4,29.60,West,261,6.0,7.0,49,0.00,,,0.00,Wunderground v.1.13,2013-07-22 20:19:00,
2013-07-22 15:21:00,82.9,62.9,29.59,WSW,254,6.0,7.0,51,0.00,,,0.00,Wunderground v.1.13,2013-07-22 20:21:00,
2013-07-22 15:23:00,83.2,61.5,29.59,WSW,237,6.0,12.0,48,0.00,,,0.00,Wunderground v.1.13,2013-07-22 20:23:00,
2013-07-22 15:24:00,83.1,61.4,29.59,West,260,7.0,12.0,48,0.00,,,0.00,Wunderground v.1.13,2013-07-22 20:24:00,
2013-07-22 15:25:00,83.1,62.0,29.59,West,267,8.0,12.0,49,0.00,,,0.00,Wunderground v.1.13,2013-07-22 20:25:00,
2013-07-22 15:28:00,83.3,62.7,29.59,West,269,7.0,13.0,50,0.00,,,0.00,Wunderground v.1.13,2013-07-22 20:28:00,
2013-07-22 15:29:00,83.4,62.2,29.59,West,269,7.0,13.0,49,0.00,,,0.00,Wunderground v.1.13,2013-07-22 20:29:00,
2013-07-22 15:30:00,83.3,62.1,29.59,West,272,8.0,13.0,49,0.00,,,0.00,Wunderground v.1.13,2013-07-22 20:30:00,
2013-07-22 15:31:00,83.4,62.8,29.59,West,260,8.0,13.0,50,0.00,,,0.00,Wunderground v.1.13,2013-07-22 20:31:00,
2013-07-22 15:32:00,83.4,63.4,29.60,WSW,241,8.0,12.0,51,0.00,,,0.00,Wunderground v.1.13,2013-07-22 20:32:00,
2013-07-22 15:35:00,82.8,61.7,29.60,West,265,8.0,12.0,49,0.00,,,0.00,Wunderground v.1.13,2013-07-22 20:35:00,
2013-07-22 15:36:00,82.5,61.4,29.60,WNW,283,8.0,12.0,49,0.00,,,0.00,Wunderground v.1.13,2013-07-22 20:36:00,
2013-07-22 15:37:00,82.2,61.7,29.60,SW,230,8.0,8.0,50,0.00,,,0.00,Wunderground v.1.13,2013-07-22 20:37:00,
2013-07-22 15:38:00,82.0,61.5,29.60,West,273,8.0,8.0,50,0.00,,,0.00,Wunderground v.1.13,2013-07-22 20:38:00,
2013-07-22 15:41:00,81.9,62.0,29.60,West,268,8.0,10.0,51,0.00,,,0.00,Wunderground v.1.13,2013-07-22 20:41:00,
2013-07-22 15:43:00,82.0,62.6,29.60,West,262,8.0,8.0,52,0.00,,,0.00,Wunderground v.1.13,2013-07-22 20:43:00,
2013-07-22 15:44:00,82.0,62.1,29.60,WSW,241,8.0,8.0,51,0.00,,,0.00,Wunderground v.1.13,2013-07-22 20:44:00,
2013-07-22 15:48:00,82.3,61.8,29.60,WSW,252,9.0,10.0,50,0.00,,,0.00,Wunderground v.1.13,2013-07-22 20:48:00,
2013-07-22 15:50:00,82.5,63.1,29.60,WSW,254,9.0,10.0,52,0.00,,,0.00,Wunderground v.1.13,2013-07-22 20:50:00,
2013-07-22 15:51:00,82.6,63.7,29.60,WNW,291,9.0,10.0,53,0.00,,,0.00,Wunderground v.1.13,2013-07-22 20:51:00,
2013-07-22 15:53:00,82.9,64.5,29.60,WNW,300,9.0,9.0,54,0.00,,,0.00,Wunderground v.1.13,2013-07-22 20:53:00,
2013-07-22 15:56:00,83.1,62.5,29.60,WSW,257,8.0,8.0,50,0.00,,,0.00,Wunderground v.1.13,2013-07-22 20:56:00,
2013-07-22 15:57:00,82.9,61.8,29.60,West,279,8.0,9.0,49,0.00,,,0.00,Wunderground v.1.13,2013-07-22 20:57:00,
2013-07-22 15:58:00,82.7,62.2,29.60,West,272,8.0,9.0,50,0.00,,,0.00,Wunderground v.1.13,2013-07-22 20:58:00,
2013-07-22 16:00:00,82.4,61.3,29.60,WSW,246,8.0,9.0,49,0.00,,,0.00,Wunderground v.1.13,2013-07-22 21:00:00,
2013-07-22 16:01:00,82.1,62.2,29.60,WSW,247,8.0,10.0,51,0.00,,,0.00,Wunderground v.1.13,2013-07-22 21:01:00,
2013-07-22 16:03:00,81.7,61.8,29.60,WSW,248,8.0,12.0,51,0.00,,,0.00,Wunderground v.1.13,2013-07-22 21:03:00,
2013-07-22 16:04:00,81.7,62.4,29.60,West,267,8.0,12.0,52,0.00,,,0.00,Wunderground v.1.13,2013-07-22 21:04:00,
2013-07-22 16:06:00,81.8,61.3,29.60,West,273,9.0,12.0,50,0.00,,,0.00,Wunderground v.1.13,2013-07-22 21:06:00,
2013-07-22 16:07:00,81.8,61.3,29.60,West,265,9.0,9.0,50,0.00,,,0.00,Wunderground v.1.13,2013-07-22 21:07:00,
2013-07-22 16:10:00,82.0,61.5,29.60,WNW,283,9.0,9.0,50,0.00,,,0.00,Wunderground v.1.13,2013-07-22 21:10:00,
2013-07-22 16:11:00,82.1,62.2,29.60,West,275,9.0,9.0,51,0.00,,,0.00,Wunderground v.1.13,2013-07-22 21:11:00,
2013-07-22 16:12:00,82.2,61.7,29.60,West,273,9.0,9.0,50,0.00,,,0.00,Wunderground v.1.13,2013-07-22 21:12:00,
2013-07-22 16:14:00,82.5,62.0,29.60,WSW,252,9.0,9.0,50,0.00,,,0.00,Wunderground v.1.13,2013-07-22 21:14:00,
2013-07-22 16:16:00,82.7,62.2,29.60,West,269,8.0,8.0,50,0.00,,,0.00,Wunderground v.1.13,2013-07-22 21:16:00,
2013-07-22 16:21:00,82.9,60.6,29.60,West,265,7.0,16.0,47,0.00,,,0.00,Wunderground v.1.13,2013-07-22 21:21:00,
2013-07-22 16:23:00,82.6,60.3,29.60,WSW,251,8.0,11.0,47,0.00,,,0.00,Wunderground v.1.13,2013-07-22 21:23:00,
2013-07-22 16:24:00,82.4,60.1,29.61,WNW,287,8.0,14.0,47,0.00,,,0.00,Wunderground v.1.13,2013-07-22 21:24:00,
2013-07-22 16:27:00,81.9,60.9,29.61,WNW,282,9.0,9.0,49,0.00,,,0.00,Wunderground v.1.13,2013-07-22 21:27:00,
2013-07-22 16:28:00,81.9,60.9,29.60,NW,313,9.0,9.0,49,0.00,,,0.00,Wunderground v.1.13,2013-07-22 21:28:00,
2013-07-22 16:31:00,82.4,61.3,29.60,West,259,8.0,8.0,49,0.00,,,0.00,Wunderground v.1.13,2013-07-22 21:31:00,
2013-07-22 16:33:00,82.4,60.7,29.61,West,269,8.0,10.0,48,0.00,,,0.00,Wunderground v.1.13,2013-07-22 21:33:00,
2013-07-22 16:35:00,82.2,60.0,29.61,WNW,283,7.0,11.0,47,0.00,,,0.00,Wunderground v.1.13,2013-07-22 21:35:00,
2013-07-22 16:36:00,81.9,59.7,29.61,West,265,8.0,8.0,47,0.00,,,0.00,Wunderground v.1.13,2013-07-22 21:36:00,
2013-07-22 16:38:00,81.7,60.1,29.61,WNW,297,8.0,9.0,48,0.00,,,0.00,Wunderground v.1.13,2013-07-22 21:38:00,
2013-07-22 16:39:00,81.7,59.5,29.61,West,271,8.0,9.0,47,0.00,,,0.00,Wunderground v.1.13,2013-07-22 21:39:00,
2013-07-22 16:41:00,81.6,59.4,29.61,West,271,9.0,9.0,47,0.00,,,0.00,Wunderground v.1.13,2013-07-22 21:41:00,
2013-07-22 16:43:00,81.7,60.7,29.60,WSW,257,8.0,9.0,49,0.00,,,0.00,Wunderground v.1.13,2013-07-22 21:43:00,
2013-07-22 16:44:00,81.8,60.8,29.61,West,272,8.0,9.0,49,0.00,,,0.00,Wunderground v.1.13,2013-07-22 21:44:00,
2013-07-22 16:46:00,82.0,61.5,29.61,West,268,7.0,7.0,50,0.00,,,0.00,Wunderground v.1.13,2013-07-22 21:46:00,
2013-07-22 16:47:00,82.2,61.1,29.61,West,279,7.0,7.0,49,0.00,,,0.00,Wunderground v.1.13,2013-07-22 21:47:00,
2013-07-22 16:48:00,82.2,60.6,29.61,West,271,7.0,7.0,48,0.00,,,0.00,Wunderground v.1.13,2013-07-22 21:48:00,
2013-07-22 16:49:00,82.3,60.1,29.61,WSW,257,6.0,7.0,47,0.00,,,0.00,Wunderground v.1.13,2013-07-22 21:49:00,
2013-07-22 16:50:00,82.3,60.1,29.61,WSW,242,6.0,7.0,47,0.00,,,0.00,Wunderground v.1.13,2013-07-22 21:50:00,
2013-07-22 16:54:00,82.2,59.4,29.61,WSW,247,6.0,11.0,46,0.00,,,0.00,Wunderground v.1.13,2013-07-22 21:54:00,
2013-07-22 16:55:00,82.1,59.3,29.61,WNW,288,6.0,11.0,46,0.00,,,0.00,Wunderground v.1.13,2013-07-22 21:55:00,
2013-07-22 16:56:00,82.0,60.4,29.61,WNW,296,7.0,7.0,48,0.00,,,0.00,Wunderground v.1.13,2013-07-22 21:56:00,
2013-07-22 16:57:00,81.9,60.9,29.61,WNW,286,6.0,7.0,49,0.00,,,0.00,Wunderground v.1.13,2013-07-22 21:57:00,
2013-07-22 16:58:00,81.9,60.3,29.61,West,271,6.0,7.0,48,0.00,,,0.00,Wunderground v.1.13,2013-07-22 21:58:00,
2013-07-22 16:59:00,82.0,61.0,29.61,WSW,252,6.0,11.0,49,0.00,,,0.00,Wunderground v.1.13,2013-07-22 21:59:00,
2013-07-22 17:02:00,81.9,59.7,29.61,WSW,248,7.0,10.0,47,0.00,,,0.00,Wunderground v.1.13,2013-07-22 22:02:00,
2013-07-22 17:03:00,81.8,60.2,29.61,West,270,7.0,10.0,48,0.00,,,0.00,Wunderground v.1.13,2013-07-22 22:03:00,
2013-07-22 17:06:00,81.8,60.2,29.61,West,281,7.0,8.0,48,0.00,,,0.00,Wunderground v.1.13,2013-07-22 22:06:00,
2013-07-22 17:08:00,81.6,60.0,29.61,West,264,8.0,9.0,48,0.00,,,0.00,Wunderground v.1.13,2013-07-22 22:08:00,
2013-07-22 17:09:00,81.5,59.9,29.61,West,269,8.0,9.0,48,0.00,,,0.00,Wunderground v.1.13,2013-07-22 22:09:00,
2013-07-22 17:12:00,81.2,60.2,29.61,West,277,9.0,14.0,49,0.00,,,0.00,Wunderground v.1.13,2013-07-22 22:12:00,
2013-07-22 17:13:00,81.1,60.1,29.61,WNW,301,9.0,14.0,49,0.00,,,0.00,Wunderground v.1.13,2013-07-22 22:13:00,
2013-07-22 17:14:00,81.0,60.0,29.61,WSW,256,9.0,14.0,49,0.00,,,0.00,Wunderground v.1.13,2013-07-22 22:14:00,
2013-07-22 17:18:00,81.1,59.6,29.61,SW,228,8.0,11.0,48,0.00,,,0.00,Wunderground v.1.13,2013-07-22 22:18:00,
2013-07-22 17:19:00,81.0,59.5,29.61,WSW,256,8.0,12.0,48,0.00,,,0.00,Wunderground v.1.13,2013-07-22 22:19:00,
2013-07-22 17:20:00,80.9,59.9,29.61,West,264,8.0,12.0,49,0.00,,,0.00,Wunderground v.1.13,2013-07-22 22:20:00,
2013-07-22 17:23:00,81.0,60.6,29.61,West,267,7.0,12.0,50,0.00,,,0.00,Wunderground v.1.13,2013-07-22 22:23:00,
2013-07-22 17:24:00,81.0,60.6,29.61,North,360,7.0,12.0,50,0.00,,,0.00,Wunderground v.1.13,2013-07-22 22:24:00,
2013-07-22 17:27:00,80.9,59.4,29.62,NNW,331,7.0,9.0,48,0.00,,,0.00,Wunderground v.1.13,2013-07-22 22:27:00,
2013-07-22 17:31:00,80.8,59.3,29.62,West,273,7.0,10.0,48,0.00,,,0.00,Wunderground v.1.13,2013-07-22 22:31:00,
2013-07-22 17:32:00,80.8,59.3,29.62,West,270,7.0,9.0,48,0.00,,,0.00,Wunderground v.1.13,2013-07-22 22:32:00,
2013-07-22 17:33:00,80.6,59.1,29.62,WSW,242,7.0,10.0,48,0.00,,,0.00,Wunderground v.1.13,2013-07-22 22:33:00,
2013-07-22 17:35:00,80.1,58.6,29.62,West,264,8.0,10.0,48,0.00,,,0.00,Wunderground v.1.13,2013-07-22 22:35:00,
2013-07-22 17:39:00,79.3,59.0,29.62,West,267,8.0,8.0,50,0.00,,,0.00,Wunderground v.1.13,2013-07-22 22:39:00,
2013-07-22 17:40:00,79.3,59.0,29.62,West,261,8.0,8.0,50,0.00,,,0.00,Wunderground v.1.13,2013-07-22 22:40:00,
2013-07-22 17:42:00,79.4,59.7,29.62,West,277,8.0,9.0,51,0.00,,,0.00,Wunderground v.1.13,2013-07-22 22:42:00,
2013-07-22 17:45:00,79.7,59.4,29.62,WSW,257,9.0,12.0,50,0.00,,,0.00,Wunderground v.1.13,2013-07-22 22:45:00,
2013-07-22 17:46:00,79.7,59.4,29.62,West,269,9.0,12.0,50,0.00,,,0.00,Wunderground v.1.13,2013-07-22 22:46:00,
2013-07-22 17:49:00,79.4,59.7,29.62,WSW,244,8.0,16.0,51,0.00,,,0.00,Wunderground v.1.13,2013-07-22 22:49:00,
2013-07-22 17:50:00,79.1,58.9,29.62,West,260,8.0,16.0,50,0.00,,,0.00,Wunderground v.1.13,2013-07-22 22:50:00,
2013-07-22 17:52:00,78.9,59.2,29.63,WSW,252,8.0,16.0,51,0.00,,,0.00,Wunderground v.1.13,2013-07-22 22:52:00,
2013-07-22 17:54:00,78.9,58.7,29.62,WNW,286,8.0,9.0,50,0.00,,,0.00,Wunderground v.1.13,2013-07-22 22:54:00,
2013-07-22 17:55:00,78.9,59.2,29.63,West,260,7.0,9.0,51,0.00,,,0.00,Wunderground v.1.13,2013-07-22 22:55:00,
2013-07-22 17:56:00,79.0,59.3,29.63,WNW,290,7.0,14.0,51,0.00,,,0.00,Wunderground v.1.13,2013-07-22 22:56:00,
2013-07-22 17:59:00,79.1,58.9,29.63,NNW,346,7.0,7.0,50,0.00,,,0.00,Wunderground v.1.13,2013-07-22 22:59:00,
2013-07-22 18:01:00,79.1,58.9,29.63,North,355,6.0,7.0,50,0.00,,,0.00,Wunderground v.1.13,2013-07-22 23:01:00,
2013-07-22 18:03:00,79.3,59.0,29.63,WSW,248,6.0,9.0,50,0.00,,,0.00,Wunderground v.1.13,2013-07-22 23:03:00,
2013-07-22 18:05:00,79.4,58.6,29.63,West,276,5.0,10.0,49,0.00,,,0.00,Wunderground v.1.13,2013-07-22 23:05:00,
2013-07-22 18:06:00,79.4,58.6,29.63,West,276,6.0,10.0,49,0.00,,,0.00,Wunderground v.1.13,2013-07-22 23:06:00,
2013-07-22 18:08:00,79.2,58.4,29.63,WNW,286,6.0,10.0,49,0.00,,,0.00,Wunderground v.1.13,2013-07-22 23:08:00,
2013-07-22 18:11:00,78.9,59.2,29.63,NW,326,6.0,10.0,51,0.00,,,0.00,Wunderground v.1.13,2013-07-22 23:11:00,
2013-07-22 18:12:00,78.8,58.6,29.63,WNW,284,6.0,6.0,50,0.00,,,0.00,Wunderground v.1.13,2013-07-22 23:12:00,
2013-07-22 18:13:00,78.8,59.1,29.63,WNW,294,6.0,6.0,51,0.00,,,0.00,Wunderground v.1.13,2013-07-22 23:13:00,
2013-07-22 18:14:00,78.7,59.0,29.63,WNW,301,6.0,6.0,51,0.00,,,0.00,Wunderground v.1.13,2013-07-22 23:14:00,
2013-07-22 18:18:00,78.9,58.7,29.63,WNW,291,5.0,7.0,50,0.00,,,0.00,Wunderground v.1.13,2013-07-22 23:18:00,
2013-07-22 18:20:00,78.9,59.2,29.63,West,281,5.0,7.0,51,0.00,,,0.00,Wunderground v.1.13,2013-07-22 23:20:00,
2013-07-22 18:21:00,78.9,59.2,29.63,NW,323,5.0,7.0,51,0.00,,,0.00,Wunderground v.1.13,2013-07-22 23:21:00,
2013-07-22 18:25:00,78.7,58.5,29.63,NW,305,5.0,14.0,50,0.00,,,0.00,Wunderground v.1.13,2013-07-22 23:25:00,
2013-07-22 18:26:00,78.6,58.4,29.63,NW,323,5.0,14.0,50,0.00,,,0.00,Wunderground v.1.13,2013-07-22 23:26:00,
2013-07-22 18:28:00,78.4,58.8,29.64,West,268,5.0,7.0,51,0.00,,,0.00,Wunderground v.1.13,2013-07-22 23:28:00,
2013-07-22 18:29:00,78.4,59.3,29.64,WSW,257,5.0,7.0,52,0.00,,,0.00,Wunderground v.1.13,2013-07-22 23:29:00,
2013-07-22 18:34:00,78.5,59.4,29.64,ESE,112,5.0,5.0,52,0.00,,,0.00,Wunderground v.1.13,2013-07-22 23:34:00,
2013-07-22 18:36:00,78.6,59.0,29.64,WNW,286,4.0,6.0,51,0.00,,,0.00,Wunderground v.1.13,2013-07-22 23:36:00,
2013-07-22 18:39:00,78.6,59.0,29.64,West,259,4.0,7.0,51,0.00,,,0.00,Wunderground v.1.13,2013-07-22 23:39:00,
2013-07-22 18:40:00,78.5,58.9,29.65,WSW,243,5.0,7.0,51,0.00,,,0.00,Wunderground v.1.13,2013-07-22 23:40:00,
2013-07-22 18:41:00,78.2,58.0,29.65,West,260,5.0,8.0,50,0.00,,,0.00,Wunderground v.1.13,2013-07-22 23:41:00,
2013-07-22 18:45:00,77.4,58.4,29.65,WNW,291,6.0,8.0,52,0.00,,,0.00,Wunderground v.1.13,2013-07-22 23:45:00,
2013-07-22 18:47:00,77.1,58.1,29.65,NW,318,6.0,8.0,52,0.00,,,0.00,Wunderground v.1.13,2013-07-22 23:47:00,
2013-07-22 18:49:00,76.9,57.9,29.65,WNW,284,6.0,7.0,52,0.00,,,0.00,Wunderground v.1.13,2013-07-22 23:49:00,
2013-07-22 18:52:00,76.7,58.3,29.65,West,259,5.0,8.0,53,0.00,,,0.00,Wunderground v.1.13,2013-07-22 23:52:00,
2013-07-22 18:53:00,76.8,58.4,29.65,West,268,5.0,5.0,53,0.00,,,0.00,Wunderground v.1.13,2013-07-22 23:53:00,
2013-07-22 18:56:00,76.9,58.5,29.65,West,278,5.0,7.0,53,0.00,,,0.00,Wunderground v.1.13,2013-07-22 23:56:00,
2013-07-22 18:59:00,77.1,58.1,29.66,WSW,245,4.0,6.0,52,0.00,,,0.00,Wunderground v.1.13,2013-07-22 23:59:00,
2013-07-22 19:00:00,77.1,58.6,29.66,WNW,299,5.0,6.0,53,0.00,,,0.00,Wunderground v.1.13,2013-07-23 00:00:00,
2013-07-22 19:02:00,77.1,58.1,29.66,West,259,5.0,5.0,52,0.00,,,0.00,Wunderground v.1.13,2013-07-23 00:02:00,
2013-07-22 19:03:00,77.1,58.1,29.66,NW,324,5.0,9.0,52,0.00,,,0.00,Wunderground v.1.13,2013-07-23 00:03:00,
2013-07-22 19:06:00,76.8,57.3,29.66,WNW,286,5.0,9.0,51,0.00,,,0.00,Wunderground v.1.13,2013-07-23 00:06:00,
2013-07-22 19:07:00,76.5,57.0,29.66,West,281,6.0,7.0,51,0.00,,,0.00,Wunderground v.1.13,2013-07-23 00:07:00,
2013-07-22 19:09:00,76.2,57.3,29.66,WSW,257,6.0,8.0,52,0.00,,,0.00,Wunderground v.1.13,2013-07-23 00:09:00,
2013-07-22 19:11:00,75.6,56.7,29.66,West,259,7.0,7.0,52,0.00,,,0.00,Wunderground v.1.13,2013-07-23 00:11:00,
2013-07-22 19:12:00,75.3,57.0,29.66,West,263,7.0,10.0,53,0.00,,,0.00,Wunderground v.1.13,2013-07-23 00:12:00,
2013-07-22 19:17:00,74.4,57.2,29.67,West,265,7.0,7.0,55,0.00,,,0.00,Wunderground v.1.13,2013-07-23 00:17:00,
2013-07-22 19:18:00,74.3,57.6,29.67,West,263,7.0,7.0,56,0.00,,,0.00,Wunderground v.1.13,2013-07-23 00:18:00,
2013-07-22 19:19:00,74.2,57.5,29.67,West,264,6.0,7.0,56,0.00,,,0.00,Wunderground v.1.13,2013-07-23 00:19:00,
2013-07-22 19:22:00,74.2,58.0,29.67,NNE,16,5.0,9.0,57,0.00,,,0.00,Wunderground v.1.13,2013-07-23 00:22:00,
2013-07-22 19:23:00,74.1,57.4,29.67,NNE,25,5.0,12.0,56,0.00,,,0.00,Wunderground v.1.13,2013-07-23 00:23:00,
2013-07-22 19:26:00,74.0,57.3,29.67,NNW,344,5.0,12.0,56,0.00,,,0.00,Wunderground v.1.13,2013-07-23 00:26:00,
2013-07-22 19:27:00,74.0,57.3,29.67,NW,324,5.0,9.0,56,0.00,,,0.00,Wunderground v.1.13,2013-07-23 00:27:00,
2013-07-22 19:28:00,74.0,57.3,29.67,WNW,300,5.0,9.0,56,0.00,,,0.00,Wunderground v.1.13,2013-07-23 00:28:00,
2013-07-22 19:29:00,73.9,57.2,29.67,WNW,296,5.0,9.0,56,0.00,,,0.00,Wunderground v.1.13,2013-07-23 00:29:00,
2013-07-22 19:32:00,73.8,57.6,29.67,NW,310,5.0,5.0,57,0.00,,,0.00,Wunderground v.1.13,2013-07-23 00:32:00,
2013-07-22 19:33:00,73.8,57.6,29.68,NW,319,4.0,5.0,57,0.00,,,0.00,Wunderground v.1.13,2013-07-23 00:33:00,
2013-07-22 19:35:00,73.7,57.5,29.68,NW,318,3.0,5.0,57,0.00,,,0.00,Wunderground v.1.13,2013-07-23 00:35:00,
2013-07-22 19:38:00,73.4,57.2,29.68,NW,310,3.0,6.0,57,0.00,,,0.00,Wunderground v.1.13,2013-07-23 00:38:00,
2013-07-22 19:39:00,73.3,57.1,29.68,NNW,327,2.0,6.0,57,0.00,,,0.00,Wunderground v.1.13,2013-07-23 00:39:00,
2013-07-22 19:41:00,73.2,57.5,29.68,NW,323,2.0,4.0,58,0.00,,,0.00,Wunderground v.1.13,2013-07-23 00:41:00,
2013-07-22 19:44:00,72.9,57.3,29.68,WNW,302,3.0,5.0,58,0.00,,,0.00,Wunderground v.1.13,2013-07-23 00:44:00,
2013-07-22 19:47:00,72.6,57.4,29.69,NW,318,3.0,3.0,59,0.00,,,0.00,Wunderground v.1.13,2013-07-23 00:47:00,
2013-07-22 19:49:00,72.4,57.3,29.69,West,268,3.0,6.0,59,0.00,,,0.00,Wunderground v.1.13,2013-07-23 00:49:00,
2013-07-22 19:52:00,72.2,57.1,29.69,NW,324,3.0,4.0,59,0.00,,,0.00,Wunderground v.1.13,2013-07-23 00:52:00,
2013-07-22 19:53:00,72.1,57.0,29.69,NW,315,4.0,4.0,59,0.00,,,0.00,Wunderground v.1.13,2013-07-23 00:53:00,
2013-07-22 19:56:00,72.0,57.4,29.68,NNW,336,3.0,3.0,60,0.00,,,0.00,Wunderground v.1.13,2013-07-23 00:56:00,
2013-07-22 19:58:00,71.8,57.2,29.69,WNW,290,2.0,6.0,60,0.00,,,0.00,Wunderground v.1.13,2013-07-23 00:58:00,
2013-07-22 19:59:00,71.8,57.2,29.69,WNW,297,3.0,6.0,60,0.00,,,0.00,Wunderground v.1.13,2013-07-23 00:59:00,
2013-07-22 20:03:00,71.5,56.9,29.69,WNW,291,3.0,7.0,60,0.00,,,0.00,Wunderground v.1.13,2013-07-23 01:03:00,
2013-07-22 20:05:00,71.4,56.8,29.69,WNW,290,3.0,7.0,60,0.00,,,0.00,Wunderground v.1.13,2013-07-23 01:05:00,
2013-07-22 20:06:00,71.4,57.2,29.69,WNW,286,3.0,3.0,61,0.00,,,0.00,Wunderground v.1.13,2013-07-23 01:06:00,
2013-07-22 20:10:00,71.4,56.8,29.69,West,272,2.0,6.0,60,0.00,,,0.00,Wunderground v.1.13,2013-07-23 01:10:00,
2013-07-22 20:13:00,71.3,56.7,29.69,WSW,246,2.0,3.0,60,0.00,,,0.00,Wunderground v.1.13,2013-07-23 01:13:00,
2013-07-22 20:16:00,71.2,56.1,29.70,NW,307,3.0,3.0,59,0.00,,,0.00,Wunderground v.1.13,2013-07-23 01:16:00,
2013-07-22 20:17:00,71.2,56.1,29.70,NW,319,3.0,7.0,59,0.00,,,0.00,Wunderground v.1.13,2013-07-23 01:17:00,
2013-07-22 20:18:00,71.2,56.1,29.70,WSW,258,3.0,7.0,59,0.00,,,0.00,Wunderground v.1.13,2013-07-23 01:18:00,
2013-07-22 20:19:00,71.1,56.5,29.69,WNW,284,3.0,7.0,60,0.00,,,0.00,Wunderground v.1.13,2013-07-23 01:19:00,
2013-07-22 20:22:00,71.1,56.5,29.70,NNW,338,3.0,8.0,60,0.00,,,0.00,Wunderground v.1.13,2013-07-23 01:22:00,
2013-07-22 20:24:00,71.0,55.9,29.70,NW,315,3.0,8.0,59,0.00,,,0.00,Wunderground v.1.13,2013-07-23 01:24:00,
2013-07-22 20:27:00,71.0,55.9,29.70,NW,317,3.0,3.0,59,0.00,,,0.00,Wunderground v.1.13,2013-07-23 01:27:00,
2013-07-22 20:30:00,71.0,56.4,29.70,NW,318,2.0,3.0,60,0.00,,,0.00,Wunderground v.1.13,2013-07-23 01:30:00,
2013-07-22 20:31:00,71.0,56.9,29.70,NW,318,2.0,2.0,61,0.00,,,0.00,Wunderground v.1.13,2013-07-23 01:31:00,
2013-07-22 20:33:00,70.9,55.9,29.70,NNW,343,2.0,4.0,59,0.00,,,0.00,Wunderground v.1.13,2013-07-23 01:33:00,
2013-07-22 20:34:00,70.9,56.3,29.71,WNW,286,2.0,4.0,60,0.00,,,0.00,Wunderground v.1.13,2013-07-23 01:34:00,
2013-07-22 20:37:00,70.8,56.2,29.71,NNE,17,2.0,2.0,60,0.00,,,0.00,Wunderground v.1.13,2013-07-23 01:37:00,
2013-07-22 20:39:00,70.8,56.2,29.71,NNE,17,2.0,2.0,60,0.00,,,0.00,Wunderground v.1.13,2013-07-23 01:39:00,
2013-07-22 20:41:00,70.7,56.1,29.70,NW,308,2.0,3.0,60,0.00,,,0.00,Wunderground v.1.13,2013-07-23 01:41:00,
2013-07-22 20:43:00,70.6,56.0,29.70,NW,310,2.0,4.0,60,0.00,,,0.00,Wunderground v.1.13,2013-07-23 01:43:00,
2013-07-22 20:44:00,70.6,55.6,29.70,WNW,290,2.0,4.0,59,0.00,,,0.00,Wunderground v.1.13,2013-07-23 01:44:00,
2013-07-22 20:45:00,70.5,55.5,29.71,WNW,290,2.0,4.0,59,0.00,,,0.00,Wunderground v.1.13,2013-07-23 01:45:00,
2013-07-22 20:46:00,70.5,55.5,29.71,NNW,329,2.0,5.0,59,0.00,,,0.00,Wunderground v.1.13,2013-07-23 01:46:00,
2013-07-22 20:51:00,70.4,55.8,29.71,NNW,338,1.0,3.0,60,0.00,,,0.00,Wunderground v.1.13,2013-07-23 01:51:00,
2013-07-22 20:52:00,70.4,55.4,29.71,NNW,339,1.0,4.0,59,0.00,,,0.00,Wunderground v.1.13,2013-07-23 01:52:00,
2013-07-22 20:57:00,70.2,56.1,29.71,WNW,303,1.0,1.0,61,0.00,,,0.00,Wunderground v.1.13,2013-07-23 01:57:00,
2013-07-22 20:58:00,70.2,55.7,29.71,NW,304,1.0,1.0,60,0.00,,,0.00,Wunderground v.1.13,2013-07-23 01:58:00,
2013-07-22 20:59:00,70.2,55.7,29.71,NW,304,1.0,1.0,60,0.00,,,0.00,Wunderground v.1.13,2013-07-23 01:59:00,
2013-07-22 21:03:00,70.0,55.5,29.71,WNW,303,1.0,2.0,60,0.00,,,0.00,Wunderground v.1.13,2013-07-23 02:03:00,
2013-07-22 21:06:00,69.8,55.7,29.71,WNW,303,1.0,2.0,61,0.00,,,0.00,Wunderground v.1.13,2013-07-23 02:06:00,
2013-07-22 21:09:00,69.7,55.6,29.71,NW,304,0.0,0.0,61,0.00,,,0.00,Wunderground v.1.13,2013-07-23 02:09:00,
2013-07-22 21:10:00,69.6,55.6,29.71,WNW,303,0.0,1.0,61,0.00,,,0.00,Wunderground v.1.13,2013-07-23 02:10:00,
2013-07-22 21:11:00,69.6,55.6,29.71,NW,304,0.0,1.0,61,0.00,,,0.00,Wunderground v.1.13,2013-07-23 02:11:00,
2013-07-22 21:14:00,69.4,55.4,29.71,NW,304,0.0,2.0,61,0.00,,,0.00,Wunderground v.1.13,2013-07-23 02:14:00,
2013-07-22 21:16:00,69.3,55.7,29.71,NW,304,0.0,2.0,62,0.00,,,0.00,Wunderground v.1.13,2013-07-23 02:16:00,
2013-07-22 21:17:00,69.2,55.6,29.71,NW,304,0.0,0.0,62,0.00,,,0.00,Wunderground v.1.13,2013-07-23 02:17:00,
2013-07-22 21:22:00,68.9,55.8,29.71,NW,304,1.0,1.0,63,0.00,,,0.00,Wunderground v.1.13,2013-07-23 02:22:00,
2013-07-22 21:24:00,68.8,56.1,29.71,NW,304,1.0,7.0,64,0.00,,,0.00,Wunderground v.1.13,2013-07-23 02:24:00,
2013-07-22 21:27:00,68.5,55.8,29.72,NW,304,1.0,1.0,64,0.00,,,0.00,Wunderground v.1.13,2013-07-23 02:27:00,
2013-07-22 21:28:00,68.5,55.8,29.72,NW,304,1.0,1.0,64,0.00,,,0.00,Wunderground v.1.13,2013-07-23 02:28:00,
2013-07-22 21:29:00,68.4,55.7,29.72,NW,304,0.0,1.0,64,0.00,,,0.00,Wunderground v.1.13,2013-07-23 02:29:00,
2013-07-22 21:31:00,68.3,56.1,29.72,WNW,303,0.0,1.0,65,0.00,,,0.00,Wunderground v.1.13,2013-07-23 02:31:00,
2013-07-22 21:33:00,68.2,56.0,29.72,NW,304,0.0,0.0,65,0.00,,,0.00,Wunderground v.1.13,2013-07-23 02:33:00,
2013-07-22 21:34:00,68.1,55.9,29.72,WNW,303,0.0,1.0,65,0.00,,,0.00,Wunderground v.1.13,2013-07-23 02:34:00,
2013-07-22 21:36:00,68.0,55.8,29.72,NW,304,0.0,1.0,65,0.00,,,0.00,Wunderground v.1.13,2013-07-23 02:36:00,
2013-07-22 21:38:00,67.9,56.1,29.72,WNW,303,0.0,0.0,66,0.00,,,0.00,Wunderground v.1.13,2013-07-23 02:38:00,
2013-07-22 21:40:00,67.8,56.0,29.73,NW,304,0.0,0.0,66,0.00,,,0.00,Wunderground v.1.13,2013-07-23 02:40:00,
2013-07-22 21:41:00,67.8,56.0,29.73,WNW,303,0.0,0.0,66,0.00,,,0.00,Wunderground v.1.13,2013-07-23 02:41:00,
2013-07-22 21:42:00,67.8,56.0,29.73,NW,304,0.0,0.0,66,0.00,,,0.00,Wunderground v.1.13,2013-07-23 02:42:00,
2013-07-22 21:43:00,67.8,56.0,29.73,NW,304,0.0,0.0,66,0.00,,,0.00,Wunderground v.1.13,2013-07-23 02:43:00,
2013-07-22 21:46:00,67.7,55.9,29.73,NW,304,0.0,0.0,66,0.00,,,0.00,Wunderground v.1.13,2013-07-23 02:46:00,
2013-07-22 21:47:00,67.6,56.2,29.73,NW,304,0.0,0.0,67,0.00,,,0.00,Wunderground v.1.13,2013-07-23 02:47:00,
2013-07-22 21:51:00,67.6,56.2,29.73,NW,304,0.0,0.0,67,0.00,,,0.00,Wunderground v.1.13,2013-07-23 02:51:00,
2013-07-22 21:52:00,67.5,56.2,29.73,NW,304,0.0,1.0,67,0.00,,,0.00,Wunderground v.1.13,2013-07-23 02:52:00,
2013-07-22 21:53:00,67.5,56.2,29.73,NW,304,0.0,1.0,67,0.00,,,0.00,Wunderground v.1.13,2013-07-23 02:53:00,
2013-07-22 21:54:00,67.5,56.6,29.73,NW,304,0.0,1.0,68,0.00,,,0.00,Wunderground v.1.13,2013-07-23 02:54:00,
2013-07-22 21:55:00,67.5,56.6,29.73,NW,304,0.0,2.0,68,0.00,,,0.00,Wunderground v.1.13,2013-07-23 02:55:00,
2013-07-22 21:58:00,67.4,56.1,29.73,NW,304,1.0,1.0,67,0.00,,,0.00,Wunderground v.1.13,2013-07-23 02:58:00,
2013-07-22 22:00:00,67.3,56.0,29.73,WNW,303,1.0,1.0,67,0.00,,,0.00,Wunderground v.1.13,2013-07-23 03:00:00,
2013-07-22 22:01:00,67.3,56.0,29.73,NW,304,1.0,1.0,67,0.00,,,0.00,Wunderground v.1.13,2013-07-23 03:01:00,
2013-07-22 22:02:00,67.3,55.5,29.73,WNW,288,1.0,4.0,66,0.00,,,0.00,Wunderground v.1.13,2013-07-23 03:02:00,
2013-07-22 22:03:00,67.3,55.5,29.73,WNW,288,1.0,4.0,66,0.00,,,0.00,Wunderground v.1.13,2013-07-23 03:03:00,
2013-07-22 22:06:00,67.3,55.5,29.73,WNW,289,1.0,4.0,66,0.00,,,0.00,Wunderground v.1.13,2013-07-23 03:06:00,
2013-07-22 22:08:00,67.4,55.6,29.73,WNW,289,1.0,4.0,66,0.00,,,0.00,Wunderground v.1.13,2013-07-23 03:08:00,
2013-07-22 22:12:00,67.4,55.6,29.73,WNW,289,2.0,2.0,66,0.00,,,0.00,Wunderground v.1.13,2013-07-23 03:12:00,
2013-07-22 22:13:00,67.4,55.6,29.74,WNW,289,1.0,2.0,66,0.00,,,0.00,Wunderground v.1.13,2013-07-23 03:13:00,
2013-07-22 22:14:00,67.4,55.2,29.74,WNW,288,1.0,2.0,65,0.00,,,0.00,Wunderground v.1.13,2013-07-23 03:14:00,
2013-07-22 22:16:00,67.4,55.6,29.74,WNW,288,1.0,1.0,66,0.00,,,0.00,Wunderground v.1.13,2013-07-23 03:16:00,
2013-07-22 22:19:00,67.4,55.6,29.74,WNW,289,1.0,3.0,66,0.00,,,0.00,Wunderground v.1.13,2013-07-23 03:19:00,
2013-07-22 22:20:00,67.4,55.2,29.74,WNW,288,1.0,3.0,65,0.00,,,0.00,Wunderground v.1.13,2013-07-23 03:20:00,
2013-07-22 22:22:00,67.4,55.2,29.74,WNW,289,1.0,1.0,65,0.00,,,0.00,Wunderground v.1.13,2013-07-23 03:22:00,
2013-07-22 22:23:00,67.3,55.1,29.74,West,277,1.0,4.0,65,0.00,,,0.00,Wunderground v.1.13,2013-07-23 03:23:00,
2013-07-22 22:27:00,67.3,55.1,29.74,West,277,1.0,3.0,65,0.00,,,0.00,Wunderground v.1.13,2013-07-23 03:27:00,
2013-07-22 22:28:00,67.3,54.7,29.74,West,277,2.0,4.0,64,0.00,,,0.00,Wunderground v.1.13,2013-07-23 03:28:00,
2013-07-22 22:29:00,67.3,55.1,29.74,West,277,2.0,4.0,65,0.00,,,0.00,Wunderground v.1.13,2013-07-23 03:29:00,
2013-07-22 22:30:00,67.3,55.1,29.74,West,277,2.0,4.0,65,0.00,,,0.00,Wunderground v.1.13,2013-07-23 03:30:00,
2013-07-22 22:31:00,67.3,55.1,29.74,West,277,2.0,2.0,65,0.00,,,0.00,Wunderground v.1.13,2013-07-23 03:31:00,
2013-07-22 22:32:00,67.3,55.1,29.74,West,277,2.0,2.0,65,0.00,,,0.00,Wunderground v.1.13,2013-07-23 03:32:00,
2013-07-22 22:34:00,67.3,55.1,29.74,West,277,2.0,2.0,65,0.00,,,0.00,Wunderground v.1.13,2013-07-23 03:34:00,
2013-07-22 22:37:00,67.3,55.1,29.74,West,277,2.0,2.0,65,0.00,,,0.00,Wunderground v.1.13,2013-07-23 03:37:00,
2013-07-22 22:38:00,67.3,55.1,29.74,West,277,1.0,2.0,65,0.00,,,0.00,Wunderground v.1.13,2013-07-23 03:38:00,
2013-07-22 22:39:00,67.3,54.7,29.74,West,277,1.0,2.0,64,0.00,,,0.00,Wunderground v.1.13,2013-07-23 03:39:00,
2013-07-22 22:44:00,67.3,55.1,29.74,West,277,1.0,1.0,65,0.00,,,0.00,Wunderground v.1.13,2013-07-23 03:44:00,
2013-07-22 22:48:00,67.2,55.0,29.75,West,277,1.0,2.0,65,0.00,,,0.00,Wunderground v.1.13,2013-07-23 03:48:00,
2013-07-22 22:50:00,67.2,54.6,29.75,West,277,1.0,2.0,64,0.00,,,0.00,Wunderground v.1.13,2013-07-23 03:50:00,
2013-07-22 22:52:00,67.2,55.0,29.75,West,277,1.0,2.0,65,0.00,,,0.00,Wunderground v.1.13,2013-07-23 03:52:00,
2013-07-22 22:54:00,67.2,54.6,29.75,West,277,1.0,2.0,64,0.00,,,0.00,Wunderground v.1.13,2013-07-23 03:54:00,
2013-07-22 22:55:00,67.2,54.6,29.75,West,277,1.0,2.0,64,0.00,,,0.00,Wunderground v.1.13,2013-07-23 03:55:00,
2013-07-22 22:58:00,67.2,55.0,29.75,West,277,1.0,3.0,65,0.00,,,0.00,Wunderground v.1.13,2013-07-23 03:58:00,
2013-07-22 23:00:00,67.1,54.5,29.75,West,277,1.0,3.0,64,0.00,,,0.00,Wunderground v.1.13,2013-07-23 04:00:00,
2013-07-22 23:01:00,67.1,54.5,29.75,West,277,2.0,2.0,64,0.00,,,0.00,Wunderground v.1.13,2013-07-23 04:01:00,
2013-07-22 23:02:00,67.1,54.5,29.75,West,277,2.0,2.0,64,0.00,,,0.00,Wunderground v.1.13,2013-07-23 04:02:00,
2013-07-22 23:03:00,67.1,54.9,29.75,West,277,2.0,2.0,65,0.00,,,0.00,Wunderground v.1.13,2013-07-23 04:03:00,
2013-07-22 23:05:00,67.1,54.9,29.75,West,277,2.0,4.0,65,0.00,,,0.00,Wunderground v.1.13,2013-07-23 04:05:00,
2013-07-22 23:08:00,67.1,54.9,29.75,West,277,2.0,4.0,65,0.00,,,0.00,Wunderground v.1.13,2013-07-23 04:08:00,
2013-07-22 23:10:00,67.0,54.8,29.75,West,277,1.0,4.0,65,0.00,,,0.00,Wunderground v.1.13,2013-07-23 04:10:00,
2013-07-22 23:12:00,67.0,54.8,29.75,West,277,1.0,1.0,65,0.00,,,0.00,Wunderground v.1.13,2013-07-23 04:12:00,
2013-07-22 23:15:00,67.0,55.3,29.75,West,277,1.0,1.0,66,0.00,,,0.00,Wunderground v.1.13,2013-07-23 04:15:00,
2013-07-22 23:17:00,66.9,55.2,29.75,West,277,0.0,1.0,66,0.00,,,0.00,Wunderground v.1.13,2013-07-23 04:17:00,
2013-07-22 23:19:00,66.9,55.2,29.75,West,277,0.0,1.0,66,0.00,,,0.00,Wunderground v.1.13,2013-07-23 04:19:00,
2013-07-22 23:20:00,66.9,54.7,29.75,West,277,1.0,1.0,65,0.00,,,0.00,Wunderground v.1.13,2013-07-23 04:20:00,
2013-07-22 23:23:00,66.8,54.7,29.75,West,277,0.0,2.0,65,0.00,,,0.00,Wunderground v.1.13,2013-07-23 04:23:00,
2013-07-22 23:27:00,66.7,54.6,29.75,West,277,1.0,2.0,65,0.00,,,0.00,Wunderground v.1.13,2013-07-23 04:27:00,
2013-07-22 23:28:00,66.7,54.6,29.75,West,277,0.0,2.0,65,0.00,,,0.00,Wunderground v.1.13,2013-07-23 04:28:00,
2013-07-22 23:29:00,66.7,54.6,29.76,West,277,1.0,2.0,65,0.00,,,0.00,Wunderground v.1.13,2013-07-23 04:29:00,
2013-07-22 23:30:00,66.7,54.6,29.75,West,277,1.0,2.0,65,0.00,,,0.00,Wunderground v.1.13,2013-07-23 04:30:00,
2013-07-22 23:32:00,66.8,54.7,29.76,NW,313,1.0,1.0,65,0.00,,,0.00,Wunderground v.1.13,2013-07-23 04:32:00,
2013-07-22 23:34:00,66.8,54.7,29.76,NW,311,1.0,1.0,65,0.00,,,0.00,Wunderground v.1.13,2013-07-23 04:34:00,
2013-07-22 23:36:00,66.8,54.7,29.75,NW,309,1.0,1.0,65,0.00,,,0.00,Wunderground v.1.13,2013-07-23 04:36:00,
2013-07-22 23:38:00,66.8,54.7,29.76,NW,310,1.0,2.0,65,0.00,,,0.00,Wunderground v.1.13,2013-07-23 04:38:00,
2013-07-22 23:39:00,66.8,54.7,29.75,NW,310,1.0,2.0,65,0.00,,,0.00,Wunderground v.1.13,2013-07-23 04:39:00,
2013-07-22 23:41:00,66.8,54.7,29.75,NW,310,0.0,2.0,65,0.00,,,0.00,Wunderground v.1.13,2013-07-23 04:41:00,
2013-07-22 23:43:00,66.8,54.7,29.76,NW,310,0.0,0.0,65,0.00,,,0.00,Wunderground v.1.13,2013-07-23 04:43:00,
2013-07-22 23:44:00,66.8,54.7,29.76,NW,310,0.0,0.0,65,0.00,,,0.00,Wunderground v.1.13,2013-07-23 04:44:00,
2013-07-22 23:48:00,66.8,54.7,29.76,NW,310,0.0,0.0,65,0.00,,,0.00,Wunderground v.1.13,2013-07-23 04:48:00,
2013-07-22 23:49:00,66.8,54.7,29.76,NW,310,0.0,0.0,65,0.00,,,0.00,Wunderground v.1.13,2013-07-23 04:49:00,
2013-07-22 23:52:00,66.7,54.6,29.76,NW,310,0.0,1.0,65,0.00,,,0.00,Wunderground v.1.13,2013-07-23 04:52:00,
2013-07-22 23:53:00,66.7,54.6,29.76,NW,310,0.0,1.0,65,0.00,,,0.00,Wunderground v.1.13,2013-07-23 04:53:00,
2013-07-22 23:54:00,66.6,54.5,29.76,NW,310,0.0,1.0,65,0.00,,,0.00,Wunderground v.1.13,2013-07-23 04:54:00,
2013-07-22 23:58:00,66.4,54.7,29.77,WNW,298,1.0,1.0,66,0.00,,,0.00,Wunderground v.1.13,2013-07-23 04:58:00,